| time (UTC) | temp F | wind direction | speed MPH | gust MPH | rain 1hr in | rain 24hr in | rain mn in | humidity % | barometer mb |
| 20260905182704 | 90 | 90 | 3.0 | 4.0 | 0.00 | 0.00 | 0.00 | 66 | 1011.7 |
| 20260905182603 | 90 | 90 | 3.0 | 4.0 | 0.00 | 0.00 | 0.00 | 66 | 1011.7 |
| 20260905182454 | 90 | 90 | 2.0 | 4.0 | 0.00 | 0.00 | 0.00 | 65 | 1011.7 |
| 20260905182354 | 91 | 90 | 2.0 | 4.0 | 0.00 | 0.00 | 0.00 | 68 | 1011.7 |
| 20260905182251 | 90 | 89 | 3.0 | 4.0 | 0.00 | 0.00 | 0.00 | 66 | 1011.7 |
| 20260905182151 | 90 | 89 | 2.0 | 4.0 | 0.00 | 0.00 | 0.00 | 67 | 1011.7 |
| 20260905182040 | 90 | 89 | 1.0 | 3.0 | 0.00 | 0.00 | 0.00 | 67 | 1011.7 |
| 20260905181938 | 90 | 89 | 2.0 | 3.0 | 0.00 | 0.00 | 0.00 | 67 | 1011.7 |
| 20260905181835 | 90 | 89 | 2.0 | 3.0 | 0.00 | 0.00 | 0.00 | 67 | 1011.7 |
| 20260905181735 | 89 | 89 | 2.0 | 3.0 | 0.00 | 0.00 | 0.00 | 69 | 1011.8 |
| 20260905181631 | 89 | 89 | 2.0 | 3.0 | 0.00 | 0.00 | 0.00 | 69 | 1011.8 |
| 20260905181531 | 89 | 89 | 2.0 | 4.0 | 0.00 | 0.00 | 0.00 | 69 | 1011.9 |
| 20260905181431 | 89 | 89 | 2.0 | 5.0 | 0.00 | 0.00 | 0.00 | 69 | 1011.9 |
| 20260905181333 | 89 | 89 | 1.0 | 5.0 | 0.00 | 0.00 | 0.00 | 69 | 1011.9 |
| 20260905181232 | 89 | 89 | 1.0 | 6.0 | 0.00 | 0.00 | 0.00 | 70 | 1012.0 |
| 20260905181131 | 89 | 89 | 1.0 | 6.0 | 0.00 | 0.00 | 0.00 | 69 | 1011.9 |
| 20260905181031 | 89 | 89 | 2.0 | 6.0 | 0.00 | 0.00 | 0.00 | 69 | 1012.0 |
| 20260905180932 | 89 | 89 | 2.0 | 6.0 | 0.00 | 0.00 | 0.00 | 69 | 1012.0 |
| 20260905180831 | 89 | 89 | 2.0 | 6.0 | 0.00 | 0.00 | 0.00 | 69 | 1012.1 |
| 20260905180733 | 89 | 89 | 3.0 | 6.0 | 0.00 | 0.00 | 0.00 | 69 | 1012.1 |
| 20260905180633 | 89 | 89 | 4.0 | 6.0 | 0.00 | 0.00 | 0.00 | 68 | 1012.2 |
| 20260905180531 | 89 | 89 | 3.0 | 6.0 | 0.00 | 0.00 | 0.00 | 68 | 1012.2 |
| 20260905180427 | 89 | 89 | 3.0 | 6.0 | 0.00 | 0.00 | 0.00 | 67 | 1012.1 |
| 20260905180326 | 89 | 89 | 5.0 | 6.0 | 0.00 | 0.00 | 0.00 | 67 | 1012.1 |
| 20260905180215 | 89 | 89 | 4.0 | 6.0 | 0.00 | 0.00 | 0.00 | 67 | 1012.1 |
| 20260905180115 | 89 | 87 | 4.0 | 6.0 | 0.00 | 0.00 | 0.00 | 68 | 1012.1 |
| 20260905180012 | 89 | 85 | 3.0 | 5.0 | 0.00 | 0.00 | 0.00 | 69 | 1012.1 |
| 20260905175910 | 89 | 86 | 3.0 | 5.0 | 0.00 | 0.00 | 0.00 | 69 | 1012.1 |
| 20260905175810 | 89 | 87 | 3.0 | 5.0 | 0.00 | 0.00 | 0.00 | 69 | 1012.2 |
| 20260905175711 | 89 | 86 | 3.0 | 5.0 | 0.00 | 0.00 | 0.00 | 69 | 1012.1 |
| 20260905175611 | 89 | 87 | 3.0 | 5.0 | 0.00 | 0.00 | 0.00 | 68 | 1012.2 |
| 20260905175512 | 89 | 87 | 3.0 | 5.0 | 0.00 | 0.00 | 0.00 | 68 | 1012.2 |
| 20260905175410 | 89 | 87 | 4.0 | 5.0 | 0.00 | 0.00 | 0.00 | 68 | 1012.3 |
| 20260905175311 | 89 | 87 | 3.0 | 5.0 | 0.00 | 0.00 | 0.00 | 69 | 1012.2 |
| 20260905175211 | 89 | 87 | 3.0 | 5.0 | 0.00 | 0.00 | 0.00 | 69 | 1012.3 |
| 20260905175111 | 89 | 87 | 4.0 | 5.0 | 0.00 | 0.00 | 0.00 | 69 | 1012.3 |
| 20260905175010 | 89 | 87 | 3.0 | 5.0 | 0.00 | 0.00 | 0.00 | 69 | 1012.2 |
| 20260905174912 | 89 | 87 | 2.0 | 5.0 | 0.00 | 0.00 | 0.00 | 69 | 1012.2 |
| 20260905174811 | 89 | 87 | 2.0 | 5.0 | 0.00 | 0.00 | 0.00 | 69 | 1012.2 |
| 20260905174710 | 89 | 87 | 2.0 | 5.0 | 0.00 | 0.00 | 0.00 | 69 | 1012.2 |
| 20260905174610 | 89 | 87 | 2.0 | 5.0 | 0.00 | 0.00 | 0.00 | 69 | 1012.3 |
| 20260905174511 | 89 | 87 | 3.0 | 6.0 | 0.00 | 0.00 | 0.00 | 69 | 1012.3 |
| 20260905174410 | 90 | 87 | 4.0 | 6.0 | 0.00 | 0.00 | 0.00 | 69 | 1012.3 |
| 20260905174310 | 90 | 87 | 3.0 | 6.0 | 0.00 | 0.00 | 0.00 | 70 | 1012.4 |
| 20260905174210 | 90 | 87 | 2.0 | 6.0 | 0.00 | 0.00 | 0.00 | 69 | 1012.4 |
| 20260905174112 | 89 | 87 | 3.0 | 6.0 | 0.00 | 0.00 | 0.00 | 69 | 1012.4 |
| 20260905174011 | 89 | 86 | 3.0 | 6.0 | 0.00 | 0.00 | 0.00 | 70 | 1012.5 |
| 20260905173909 | 89 | 86 | 4.0 | 6.0 | 0.00 | 0.00 | 0.00 | 70 | 1012.5 |
| 20260905173811 | 89 | 86 | 4.0 | 6.0 | 0.00 | 0.00 | 0.00 | 70 | 1012.5 |
| 20260905173711 | 89 | 86 | 4.0 | 6.0 | 0.00 | 0.00 | 0.00 | 69 | 1012.5 |
| 20260905173610 | 89 | 86 | 4.0 | 6.0 | 0.00 | 0.00 | 0.00 | 69 | 1012.5 |
| 20260905173510 | 89 | 72 | 4.0 | 6.0 | 0.00 | 0.00 | 0.00 | 69 | 1012.5 |
| 20260905173409 | 90 | 71 | 3.0 | 6.0 | 0.00 | 0.00 | 0.00 | 69 | 1012.5 |
| 20260905173309 | 90 | 68 | 2.0 | 6.0 | 0.00 | 0.00 | 0.00 | 68 | 1012.6 |
| 20260905173210 | 90 | 68 | 1.0 | 6.0 | 0.00 | 0.00 | 0.00 | 67 | 1012.6 |
| 20260905173109 | 90 | 68 | 2.0 | 6.0 | 0.00 | 0.00 | 0.00 | 66 | 1012.5 |
| 20260905173010 | 90 | 68 | 4.0 | 6.0 | 0.00 | 0.00 | 0.00 | 66 | 1012.5 |
| 20260905172911 | 90 | 68 | 3.0 | 6.0 | 0.00 | 0.00 | 0.00 | 66 | 1012.6 |
| 20260905172809 | 90 | 310 | 1.0 | 3.0 | 0.00 | 0.00 | 0.00 | 68 | 1012.6 |
| 20260905172711 | 90 | 309 | 1.0 | 3.0 | 0.00 | 0.00 | 0.00 | 68 | 1012.6 |
| 20260905172609 | 90 | 309 | 1.0 | 3.0 | 0.00 | 0.00 | 0.00 | 68 | 1012.7 |
| 20260905172510 | 90 | 309 | 1.0 | 3.0 | 0.00 | 0.00 | 0.00 | 68 | 1012.6 |
| 20260905172409 | 89 | 309 | 0.0 | 3.0 | 0.00 | 0.00 | 0.00 | 68 | 1012.6 |
| 20260905172309 | 90 | 309 | 0.0 | 3.0 | 0.00 | 0.00 | 0.00 | 68 | 1012.7 |
| 20260905172210 | 89 | 309 | 1.0 | 3.0 | 0.00 | 0.00 | 0.00 | 68 | 1012.6 |
| 20260905172109 | 90 | 309 | 1.0 | 3.0 | 0.00 | 0.00 | 0.00 | 67 | 1012.7 |
| 20260905172009 | 90 | 309 | 1.0 | 3.0 | 0.00 | 0.00 | 0.00 | 68 | 1012.6 |
| 20260905171911 | 89 | 309 | 1.0 | 3.0 | 0.00 | 0.00 | 0.00 | 68 | 1012.7 |
| 20260905171810 | 89 | 309 | 2.0 | 3.0 | 0.00 | 0.00 | 0.00 | 67 | 1012.7 |
| 20260905171711 | 89 | 309 | 2.0 | 3.0 | 0.00 | 0.00 | 0.00 | 67 | 1012.7 |
| 20260905171611 | 90 | 309 | 2.0 | 3.0 | 0.00 | 0.00 | 0.00 | 68 | 1012.7 |
| 20260905171509 | 89 | 309 | 2.0 | 3.0 | 0.00 | 0.00 | 0.00 | 68 | 1012.7 |
| 20260905171411 | 89 | 310 | 2.0 | 3.0 | 0.00 | 0.00 | 0.00 | 68 | 1012.7 |
| 20260905171309 | 89 | 310 | 2.0 | 3.0 | 0.00 | 0.00 | 0.00 | 68 | 1012.7 |
| 20260905171210 | 89 | 310 | 2.0 | 3.0 | 0.00 | 0.00 | 0.00 | 69 | 1012.6 |
| 20260905171104 | 89 | 310 | 2.0 | 3.0 | 0.00 | 0.00 | 0.00 | 69 | 1012.6 |
| 20260905171002 | 89 | 310 | 1.0 | 3.0 | 0.00 | 0.00 | 0.00 | 68 | 1012.6 |
| 20260905170902 | 89 | 310 | 1.0 | 3.0 | 0.00 | 0.00 | 0.00 | 68 | 1012.6 |
| 20260905170803 | 89 | 310 | 1.0 | 3.0 | 0.00 | 0.00 | 0.00 | 68 | 1012.7 |
| 20260905170703 | 89 | 310 | 2.0 | 3.0 | 0.00 | 0.00 | 0.00 | 68 | 1012.6 |
| 20260905170602 | 89 | 310 | 2.0 | 3.0 | 0.00 | 0.00 | 0.00 | 68 | 1012.7 |
| 20260905170505 | 89 | 310 | 2.0 | 3.0 | 0.00 | 0.00 | 0.00 | 69 | 1012.7 |
| 20260905170402 | 89 | 310 | 0.0 | 3.0 | 0.00 | 0.00 | 0.00 | 69 | 1012.7 |
| 20260905170304 | 89 | 310 | 1.0 | 3.0 | 0.00 | 0.00 | 0.00 | 69 | 1012.6 |
| 20260905170203 | 89 | 310 | 1.0 | 3.0 | 0.00 | 0.00 | 0.00 | 69 | 1012.6 |
| 20260905170004 | 89 | 310 | 2.0 | 3.0 | 0.00 | 0.00 | 0.00 | 69 | 1012.7 |
| 20260905165853 | 89 | 310 | 1.0 | 3.0 | 0.00 | 0.00 | 0.00 | 69 | 1012.7 |
| 20260905165747 | 89 | 310 | 1.0 | 3.0 | 0.00 | 0.00 | 0.00 | 69 | 1012.7 |
| 20260905165646 | 89 | 310 | 0.0 | 5.0 | 0.00 | 0.00 | 0.00 | 70 | 1012.6 |
| 20260905165533 | 89 | 310 | 1.0 | 5.0 | 0.00 | 0.00 | 0.00 | 70 | 1012.6 |
| 20260905165432 | 89 | 312 | 1.0 | 5.0 | 0.00 | 0.00 | 0.00 | 69 | 1012.7 |
| 20260905165333 | 89 | 312 | 2.0 | 5.0 | 0.00 | 0.00 | 0.00 | 69 | 1012.7 |
| 20260905165231 | 89 | 312 | 2.0 | 5.0 | 0.00 | 0.00 | 0.00 | 69 | 1012.7 |
| 20260905165131 | 90 | 310 | 2.0 | 5.0 | 0.00 | 0.00 | 0.00 | 69 | 1012.8 |
| 20260905165032 | 90 | 312 | 3.0 | 5.0 | 0.00 | 0.00 | 0.00 | 69 | 1012.7 |
| 20260905164909 | 90 | 312 | 3.0 | 5.0 | 0.00 | 0.00 | 0.00 | 69 | 1012.8 |
| 20260905164810 | 90 | 312 | 3.0 | 5.0 | 0.00 | 0.00 | 0.00 | 69 | 1012.8 |
| 20260905164708 | 90 | 312 | 3.0 | 5.0 | 0.00 | 0.00 | 0.00 | 68 | 1012.7 |
| 20260905164610 | 91 | 317 | 4.0 | 5.0 | 0.00 | 0.00 | 0.00 | 68 | 1012.7 |
| 20260905164508 | 91 | 317 | 4.0 | 5.0 | 0.00 | 0.00 | 0.00 | 68 | 1012.7 |
| 20260905164409 | 91 | 240 | 2.0 | 3.0 | 0.00 | 0.00 | 0.00 | 68 | 1012.7 |
| 20260905164310 | 91 | 240 | 2.0 | 3.0 | 0.00 | 0.00 | 0.00 | 68 | 1012.7 |
| 20260905164210 | 91 | 240 | 2.0 | 3.0 | 0.00 | 0.00 | 0.00 | 68 | 1012.7 |
| 20260905164109 | 91 | 240 | 2.0 | 3.0 | 0.00 | 0.00 | 0.00 | 68 | 1012.7 |
| 20260905164009 | 91 | 125 | 2.0 | 1.0 | 0.00 | 0.00 | 0.00 | 67 | 1012.7 |
| 20260905163911 | 91 | 125 | 2.0 | 3.0 | 0.00 | 0.00 | 0.00 | 67 | 1012.8 |
| 20260905163804 | 91 | 125 | 2.0 | 3.0 | 0.00 | 0.00 | 0.00 | 67 | 1012.8 |
| 20260905163703 | 91 | 125 | 2.0 | 3.0 | 0.00 | 0.00 | 0.00 | 67 | 1012.8 |
| 20260905163603 | 91 | 125 | 2.0 | 3.0 | 0.00 | 0.00 | 0.00 | 67 | 1012.8 |
| 20260905163503 | 91 | 125 | 2.0 | 3.0 | 0.00 | 0.00 | 0.00 | 67 | 1012.8 |
| 20260905163403 | 91 | 125 | 2.0 | 3.0 | 0.00 | 0.00 | 0.00 | 67 | 1012.8 |
| 20260905163303 | 91 | 125 | 2.0 | 3.0 | 0.00 | 0.00 | 0.00 | 67 | 1012.8 |
| 20260905163203 | 91 | 125 | 2.0 | 4.0 | 0.00 | 0.00 | 0.00 | 67 | 1012.8 |
| 20260905163103 | 91 | 125 | 2.0 | 4.0 | 0.00 | 0.00 | 0.00 | 67 | 1012.8 |
| 20260905163003 | 91 | 125 | 2.0 | 4.0 | 0.00 | 0.00 | 0.00 | 67 | 1012.8 |
| 20260905162904 | 90 | 125 | 2.0 | 4.0 | 0.00 | 0.00 | 0.00 | 66 | 1012.8 |
| 20260905162803 | 90 | 125 | 2.0 | 4.0 | 0.00 | 0.00 | 0.00 | 66 | 1012.9 |
| 20260905162703 | 90 | 125 | 2.0 | 4.0 | 0.00 | 0.00 | 0.00 | 66 | 1012.9 |
| 20260905162603 | 90 | 125 | 2.0 | 4.0 | 0.00 | 0.00 | 0.00 | 66 | 1012.9 |
| 20260905162502 | 90 | 125 | 2.0 | 4.0 | 0.00 | 0.00 | 0.00 | 67 | 1012.9 |
| 20260905162404 | 90 | 125 | 2.0 | 4.0 | 0.00 | 0.00 | 0.00 | 67 | 1012.9 |
| 20260905162246 | 91 | 125 | 3.0 | 4.0 | 0.00 | 0.00 | 0.00 | 67 | 1012.9 |
| 20260905162144 | 90 | 125 | 3.0 | 4.0 | 0.00 | 0.00 | 0.00 | 68 | 1012.8 |
| 20260905162034 | 91 | 125 | 2.0 | 4.0 | 0.00 | 0.00 | 0.00 | 67 | 1012.9 |
| 20260905161933 | 90 | 125 | 2.0 | 2.0 | 0.00 | 0.00 | 0.00 | 67 | 1012.9 |
| 20260905161832 | 0 | 0.0 | 0.0 | 0.00 | 0.00 | 0.00 | 1012.8 | ||
| 20260905161732 | 0 | 0.0 | 0.0 | 0.00 | 0.00 | 0.00 | 1012.8 | ||
| 20260905161632 | 0 | 0.0 | 0.0 | 0.00 | 0.00 | 0.00 | 1012.8 | ||
| 20260905161533 | 0 | 0.0 | 0.0 | 0.00 | 0.00 | 0.00 | 1012.8 | ||
| 20260905161433 | 0 | 0.0 | 0.0 | 0.00 | 0.00 | 0.00 | 1012.8 | ||
| 20260905161333 | 0 | 0.0 | 0.0 | 0.00 | 0.00 | 0.00 | 1012.8 | ||
| 20260905161234 | 0 | 0.0 | 0.0 | 0.00 | 0.00 | 0.00 | 1012.8 | ||
| 20260905161133 | 0 | 0.0 | 0.0 | 0.00 | 0.00 | 0.00 | 1012.8 | ||
| 20260905161032 | 0 | 0.0 | 0.0 | 0.00 | 0.00 | 0.00 | 1012.8 | ||
| 20260905160904 | 89 | 172 | 2.0 | 2.0 | 0.00 | 0.00 | 0.00 | 71 | 1012.8 |
| 20260905160803 | 89 | 172 | 2.0 | 3.0 | 0.00 | 0.00 | 0.00 | 71 | 1012.8 |
| 20260905160706 | 89 | 172 | 2.0 | 3.0 | 0.00 | 0.00 | 0.00 | 71 | 1012.7 |
| 20260905160601 | 89 | 172 | 2.0 | 4.0 | 0.00 | 0.00 | 0.00 | 71 | 1012.8 |
| 20260905160501 | 89 | 172 | 2.0 | 4.0 | 0.00 | 0.00 | 0.00 | 71 | 1012.8 |
| 20260905160402 | 89 | 172 | 2.0 | 4.0 | 0.00 | 0.00 | 0.00 | 71 | 1012.8 |
| 20260905160301 | 89 | 172 | 2.0 | 5.0 | 0.00 | 0.00 | 0.00 | 71 | 1012.9 |
| 20260905160201 | 89 | 172 | 2.0 | 5.0 | 0.00 | 0.00 | 0.00 | 71 | 1012.9 |
| 20260905160033 | 89 | 172 | 2.0 | 5.0 | 0.00 | 0.00 | 0.00 | 71 | 1012.9 |
| 20260905155933 | 89 | 172 | 2.0 | 5.0 | 0.00 | 0.00 | 0.00 | 72 | 1012.9 |
| 20260905155831 | 89 | 172 | 1.0 | 5.0 | 0.00 | 0.00 | 0.00 | 73 | 1012.8 |
| 20260905155731 | 89 | 172 | 2.0 | 5.0 | 0.00 | 0.00 | 0.00 | 71 | 1012.9 |
| 20260905155633 | 89 | 172 | 3.0 | 5.0 | 0.00 | 0.00 | 0.00 | 71 | 1012.9 |
| 20260905155532 | 89 | 172 | 3.0 | 5.0 | 0.00 | 0.00 | 0.00 | 71 | 1012.9 |
| 20260905155432 | 89 | 172 | 2.0 | 5.0 | 0.00 | 0.00 | 0.00 | 71 | 1012.9 |
| 20260905155332 | 89 | 189 | 0.0 | 4.0 | 0.00 | 0.00 | 0.00 | 70 | 1012.9 |
| 20260905155232 | 0 | 0.0 | 0.0 | 0.00 | 0.00 | 0.00 | 1012.9 | ||
| 20260905155131 | 0 | 0.0 | 0.0 | 0.00 | 0.00 | 0.00 | 1012.9 | ||
| 20260905155032 | 0 | 0.0 | 0.0 | 0.00 | 0.00 | 0.00 | 1012.9 | ||
| 20260905154932 | 0 | 0.0 | 0.0 | 0.00 | 0.00 | 0.00 | 1012.8 | ||
| 20260905154832 | 0 | 0.0 | 0.0 | 0.00 | 0.00 | 0.00 | 1012.9 | ||
| 20260905154732 | 87 | 261 | 2.0 | 2.0 | 0.00 | 0.00 | 0.00 | 75 | 1012.9 |
| 20260905154633 | 87 | 261 | 2.0 | 2.0 | 0.00 | 0.00 | 0.00 | 75 | 1012.9 |
| 20260905154532 | 87 | 261 | 2.0 | 3.0 | 0.00 | 0.00 | 0.00 | 75 | 1012.8 |
| 20260905154432 | 87 | 261 | 2.0 | 3.0 | 0.00 | 0.00 | 0.00 | 75 | 1012.8 |
| 20260905154304 | 87 | 261 | 2.0 | 3.0 | 0.00 | 0.00 | 0.00 | 75 | 1012.9 |
| 20260905154204 | 87 | 261 | 2.0 | 4.0 | 0.00 | 0.00 | 0.00 | 75 | 1012.9 |
| 20260905154105 | 87 | 261 | 2.0 | 4.0 | 0.00 | 0.00 | 0.00 | 75 | 1012.9 |
| 20260905154004 | 87 | 261 | 2.0 | 4.0 | 0.00 | 0.00 | 0.00 | 75 | 1012.9 |
| 20260905153904 | 87 | 261 | 2.0 | 4.0 | 0.00 | 0.00 | 0.00 | 75 | 1012.9 |
| 20260905153801 | 87 | 261 | 2.0 | 4.0 | 0.00 | 0.00 | 0.00 | 75 | 1012.9 |
| 20260905153702 | 87 | 261 | 2.0 | 4.0 | 0.00 | 0.00 | 0.00 | 76 | 1012.9 |
| 20260905153603 | 87 | 261 | 2.0 | 4.0 | 0.00 | 0.00 | 0.00 | 76 | 1012.9 |
| 20260905153502 | 87 | 261 | 2.0 | 4.0 | 0.00 | 0.00 | 0.00 | 76 | 1012.9 |
| 20260905153403 | 87 | 261 | 2.0 | 4.0 | 0.00 | 0.00 | 0.00 | 75 | 1012.9 |
| 20260905153304 | 87 | 261 | 2.0 | 4.0 | 0.00 | 0.00 | 0.00 | 75 | 1012.9 |
| 20260905153204 | 87 | 261 | 2.0 | 3.0 | 0.00 | 0.00 | 0.00 | 76 | 1012.9 |
| 20260905153102 | 87 | 259 | 2.0 | 2.0 | 0.00 | 0.00 | 0.00 | 78 | 1012.9 |
| 20260905153004 | 87 | 226 | 0.0 | 0.0 | 0.00 | 0.00 | 0.00 | 78 | 1013.0 |
| 20260905152904 | 87 | 226 | 0.0 | 0.0 | 0.00 | 0.00 | 0.00 | 78 | 1012.9 |
| 20260905152803 | 87 | 226 | 0.0 | 0.0 | 0.00 | 0.00 | 0.00 | 78 | 1012.9 |
| 20260905152703 | 87 | 226 | 0.0 | 0.0 | 0.00 | 0.00 | 0.00 | 78 | 1012.9 |
| 20260905152602 | 87 | 221 | 0.0 | 0.0 | 0.00 | 0.00 | 0.00 | 78 | 1012.9 |
| 20260905152504 | 87 | 221 | 0.0 | 0.0 | 0.00 | 0.00 | 0.00 | 78 | 1013.0 |
| 20260905152403 | 87 | 221 | 0.0 | 0.0 | 0.00 | 0.00 | 0.00 | 79 | 1013.0 |
| 20260905152306 | 86 | 221 | 0.0 | 0.0 | 0.00 | 0.00 | 0.00 | 79 | 1013.0 |
| 20260905152203 | 86 | 220 | 0.0 | 0.0 | 0.00 | 0.00 | 0.00 | 80 | 1012.9 |
| 20260905152103 | 86 | 220 | 0.0 | 0.0 | 0.00 | 0.00 | 0.00 | 80 | 1012.9 |
| 20260905152003 | 86 | 213 | 0.0 | 0.0 | 0.00 | 0.00 | 0.00 | 80 | 1013.0 |
| 20260905151904 | 86 | 219 | 0.0 | 0.0 | 0.00 | 0.00 | 0.00 | 80 | 1013.0 |
| 20260905151803 | 86 | 219 | 0.0 | 0.0 | 0.00 | 0.00 | 0.00 | 80 | 1012.9 |
| 20260905151703 | 86 | 219 | 0.0 | 0.0 | 0.00 | 0.00 | 0.00 | 81 | 1012.9 |
| 20260905151603 | 86 | 219 | 0.0 | 0.0 | 0.00 | 0.00 | 0.00 | 81 | 1012.9 |
| 20260905151503 | 85 | 217 | 0.0 | 0.0 | 0.00 | 0.00 | 0.00 | 81 | 1013.0 |
| 20260905151403 | 85 | 217 | 0.0 | 0.0 | 0.00 | 0.00 | 0.00 | 81 | 1012.9 |
| 20260905151303 | 85 | 217 | 0.0 | 0.0 | 0.00 | 0.00 | 0.00 | 81 | 1013.0 |
| 20260905151204 | 85 | 217 | 0.0 | 0.0 | 0.00 | 0.00 | 0.00 | 81 | 1013.0 |
| 20260905151103 | 85 | 217 | 0.0 | 0.0 | 0.00 | 0.00 | 0.00 | 81 | 1013.0 |
| 20260905151002 | 85 | 217 | 0.0 | 0.0 | 0.00 | 0.00 | 0.00 | 81 | 1013.1 |
| 20260905150904 | 85 | 217 | 0.0 | 0.0 | 0.00 | 0.00 | 0.00 | 81 | 1013.0 |
| 20260905150802 | 85 | 217 | 0.0 | 0.0 | 0.00 | 0.00 | 0.00 | 81 | 1013.0 |
| 20260905150703 | 86 | 217 | 0.0 | 0.0 | 0.00 | 0.00 | 0.00 | 81 | 1013.0 |
| 20260905150604 | 86 | 217 | 0.0 | 0.0 | 0.00 | 0.00 | 0.00 | 81 | 1013.0 |
| 20260905150504 | 86 | 217 | 0.0 | 0.0 | 0.00 | 0.00 | 0.00 | 81 | 1013.0 |
| 20260905150405 | 86 | 217 | 0.0 | 0.0 | 0.00 | 0.00 | 0.00 | 81 | 1013.0 |
| 20260905150302 | 86 | 217 | 0.0 | 0.0 | 0.00 | 0.00 | 0.00 | 81 | 1013.0 |
| 20260905150203 | 86 | 217 | 0.0 | 0.0 | 0.00 | 0.00 | 0.00 | 82 | 1013.0 |
| 20260905150104 | 85 | 217 | 0.0 | 0.0 | 0.00 | 0.00 | 0.00 | 82 | 1012.9 |
| 20260905150004 | 85 | 217 | 0.0 | 0.0 | 0.00 | 0.00 | 0.00 | 82 | 1013.0 |
| 20260905145903 | 85 | 217 | 0.0 | 0.0 | 0.00 | 0.00 | 0.00 | 82 | 1012.9 |
| 20260905145802 | 85 | 217 | 0.0 | 0.0 | 0.00 | 0.00 | 0.00 | 82 | 1013.0 |
| 20260905145702 | 85 | 217 | 0.0 | 0.0 | 0.00 | 0.00 | 0.00 | 82 | 1012.9 |
| 20260905145602 | 85 | 217 | 0.0 | 0.0 | 0.00 | 0.00 | 0.00 | 82 | 1012.9 |
| 20260905145504 | 85 | 217 | 0.0 | 0.0 | 0.00 | 0.00 | 0.00 | 82 | 1013.0 |
| 20260905145405 | 85 | 219 | 0.0 | 0.0 | 0.00 | 0.00 | 0.00 | 82 | 1012.9 |
| 20260905145306 | 85 | 219 | 0.0 | 0.0 | 0.00 | 0.00 | 0.00 | 82 | 1013.0 |
| 20260905145203 | 85 | 220 | 0.0 | 0.0 | 0.00 | 0.00 | 0.00 | 82 | 1012.9 |
| 20260905145102 | 85 | 220 | 0.0 | 0.0 | 0.00 | 0.00 | 0.00 | 82 | 1012.9 |
| 20260905145004 | 85 | 220 | 0.0 | 0.0 | 0.00 | 0.00 | 0.00 | 82 | 1013.0 |
| 20260905144904 | 85 | 220 | 0.0 | 0.0 | 0.00 | 0.00 | 0.00 | 82 | 1013.0 |
| 20260905144803 | 85 | 221 | 0.0 | 0.0 | 0.00 | 0.00 | 0.00 | 82 | 1013.0 |
| 20260905144702 | 85 | 221 | 0.0 | 0.0 | 0.00 | 0.00 | 0.00 | 82 | 1012.9 |
| 20260905144603 | 85 | 220 | 0.0 | 0.0 | 0.00 | 0.00 | 0.00 | 82 | 1012.9 |
| 20260905144504 | 86 | 219 | 0.0 | 0.0 | 0.00 | 0.00 | 0.00 | 82 | 1012.9 |
| 20260905144404 | 86 | 221 | 0.0 | 0.0 | 0.00 | 0.00 | 0.00 | 82 | 1012.8 |
| 20260905144302 | 86 | 220 | 0.0 | 0.0 | 0.00 | 0.00 | 0.00 | 82 | 1012.9 |
| 20260905144202 | 86 | 216 | 0.0 | 0.0 | 0.00 | 0.00 | 0.00 | 82 | 1012.9 |
| 20260905144102 | 86 | 216 | 0.0 | 0.0 | 0.00 | 0.00 | 0.00 | 82 | 1012.9 |
| 20260905144003 | 86 | 216 | 0.0 | 0.0 | 0.00 | 0.00 | 0.00 | 82 | 1012.9 |
| 20260905143903 | 86 | 216 | 0.0 | 0.0 | 0.00 | 0.00 | 0.00 | 82 | 1012.8 |
| 20260905143804 | 86 | 216 | 0.0 | 0.0 | 0.00 | 0.00 | 0.00 | 82 | 1012.9 |
| 20260905143702 | 86 | 216 | 0.0 | 0.0 | 0.00 | 0.00 | 0.00 | 82 | 1012.9 |
| 20260905143602 | 86 | 216 | 0.0 | 0.0 | 0.00 | 0.00 | 0.00 | 82 | 1012.9 |
| 20260905143504 | 86 | 216 | 0.0 | 0.0 | 0.00 | 0.00 | 0.00 | 83 | 1012.9 |
| 20260905143402 | 86 | 224 | 0.0 | 0.0 | 0.00 | 0.00 | 0.00 | 82 | 1012.9 |
| 20260905143303 | 86 | 224 | 0.0 | 0.0 | 0.00 | 0.00 | 0.00 | 83 | 1012.9 |
| 20260905143203 | 86 | 227 | 0.0 | 0.0 | 0.00 | 0.00 | 0.00 | 84 | 1012.9 |
| 20260905143104 | 85 | 221 | 0.0 | 0.0 | 0.00 | 0.00 | 0.00 | 84 | 1012.9 |
| 20260905143003 | 85 | 221 | 0.0 | 0.0 | 0.00 | 0.00 | 0.00 | 84 | 1012.9 |
| 20260905142903 | 85 | 221 | 0.0 | 0.0 | 0.00 | 0.00 | 0.00 | 84 | 1012.9 |
| 20260905142803 | 85 | 221 | 0.0 | 0.0 | 0.00 | 0.00 | 0.00 | 84 | 1012.9 |
| 20260905142703 | 85 | 220 | 0.0 | 0.0 | 0.00 | 0.00 | 0.00 | 84 | 1012.9 |
| 20260905142602 | 85 | 221 | 0.0 | 0.0 | 0.00 | 0.00 | 0.00 | 84 | 1012.9 |
| 20260905142503 | 85 | 214 | 0.0 | 0.0 | 0.00 | 0.00 | 0.00 | 85 | 1012.9 |
| 20260905142404 | 85 | 214 | 0.0 | 3.0 | 0.00 | 0.00 | 0.00 | 85 | 1012.8 |
| 20260905142306 | 85 | 214 | 0.0 | 4.0 | 0.00 | 0.00 | 0.00 | 85 | 1012.9 |
| 20260905142203 | 85 | 214 | 0.0 | 4.0 | 0.00 | 0.00 | 0.00 | 85 | 1012.8 |
| 20260905142103 | 85 | 214 | 0.0 | 4.0 | 0.00 | 0.00 | 0.00 | 85 | 1012.8 |
| 20260905142002 | 85 | 214 | 0.0 | 4.0 | 0.00 | 0.00 | 0.00 | 85 | 1012.9 |
| 20260905141902 | 85 | 212 | 0.0 | 4.0 | 0.00 | 0.00 | 0.00 | 84 | 1012.9 |
| 20260905141803 | 85 | 212 | 2.0 | 4.0 | 0.00 | 0.00 | 0.00 | 84 | 1012.9 |
| 20260905141703 | 85 | 212 | 2.0 | 4.0 | 0.00 | 0.00 | 0.00 | 84 | 1012.9 |
| 20260905141604 | 85 | 212 | 2.0 | 4.0 | 0.00 | 0.00 | 0.00 | 84 | 1012.9 |
| 20260905141504 | 85 | 212 | 2.0 | 4.0 | 0.00 | 0.00 | 0.00 | 84 | 1012.9 |
| 20260905141402 | 85 | 212 | 2.0 | 4.0 | 0.00 | 0.00 | 0.00 | 85 | 1012.9 |
| 20260905141304 | 85 | 212 | 1.0 | 3.0 | 0.00 | 0.00 | 0.00 | 84 | 1012.8 |
| 20260905141203 | 85 | 210 | 1.0 | 3.0 | 0.00 | 0.00 | 0.00 | 85 | 1012.8 |
| 20260905141103 | 85 | 199 | 0.0 | 0.0 | 0.00 | 0.00 | 0.00 | 85 | 1012.9 |
| 20260905141002 | 85 | 199 | 0.0 | 0.0 | 0.00 | 0.00 | 0.00 | 85 | 1012.8 |
| 20260905140902 | 85 | 199 | 0.0 | 0.0 | 0.00 | 0.00 | 0.00 | 85 | 1012.8 |
| 20260905140803 | 85 | 199 | 0.0 | 0.0 | 0.00 | 0.00 | 0.00 | 85 | 1012.8 |
| 20260905140702 | 85 | 199 | 0.0 | 0.0 | 0.00 | 0.00 | 0.00 | 85 | 1012.8 |
| 20260905140602 | 85 | 200 | 0.0 | 0.0 | 0.00 | 0.00 | 0.00 | 85 | 1012.8 |
| 20260905140503 | 84 | 200 | 0.0 | 0.0 | 0.00 | 0.00 | 0.00 | 85 | 1012.8 |
| 20260905140402 | 84 | 200 | 0.0 | 0.0 | 0.00 | 0.00 | 0.00 | 85 | 1012.8 |
| 20260905140302 | 84 | 200 | 0.0 | 0.0 | 0.00 | 0.00 | 0.00 | 85 | 1012.8 |
| 20260905140203 | 84 | 200 | 0.0 | 0.0 | 0.00 | 0.00 | 0.00 | 85 | 1012.8 |
| 20260905140103 | 84 | 200 | 0.0 | 0.0 | 0.00 | 0.00 | 0.00 | 85 | 1012.7 |
| 20260905140005 | 84 | 200 | 0.0 | 0.0 | 0.00 | 0.00 | 0.00 | 86 | 1012.7 |
| 20260905135902 | 84 | 200 | 0.0 | 0.0 | 0.00 | 0.00 | 0.00 | 85 | 1012.8 |
| 20260905135802 | 84 | 200 | 0.0 | 0.0 | 0.00 | 0.00 | 0.00 | 86 | 1012.8 |
| 20260905135703 | 84 | 200 | 0.0 | 0.0 | 0.00 | 0.00 | 0.00 | 86 | 1012.7 |
| 20260905135602 | 84 | 200 | 0.0 | 0.0 | 0.00 | 0.00 | 0.00 | 86 | 1012.7 |
| 20260905135504 | 84 | 200 | 0.0 | 0.0 | 0.00 | 0.00 | 0.00 | 86 | 1012.7 |
| 20260905135403 | 84 | 200 | 0.0 | 0.0 | 0.00 | 0.00 | 0.00 | 86 | 1012.7 |
| 20260905135301 | 84 | 200 | 0.0 | 0.0 | 0.00 | 0.00 | 0.00 | 86 | 1012.7 |
| 20260905135203 | 84 | 200 | 0.0 | 0.0 | 0.00 | 0.00 | 0.00 | 86 | 1012.7 |
| 20260905135103 | 84 | 200 | 0.0 | 0.0 | 0.00 | 0.00 | 0.00 | 86 | 1012.7 |
| 20260905135005 | 84 | 200 | 0.0 | 0.0 | 0.00 | 0.00 | 0.00 | 86 | 1012.7 |
| 20260905134902 | 84 | 200 | 0.0 | 0.0 | 0.00 | 0.00 | 0.00 | 86 | 1012.8 |
| 20260905134803 | 84 | 200 | 0.0 | 0.0 | 0.00 | 0.00 | 0.00 | 86 | 1012.7 |
| 20260905134702 | 83 | 200 | 0.0 | 0.0 | 0.00 | 0.00 | 0.00 | 86 | 1012.7 |
| 20260905134602 | 83 | 200 | 0.0 | 0.0 | 0.00 | 0.00 | 0.00 | 87 | 1012.7 |
| 20260905134502 | 83 | 200 | 0.0 | 0.0 | 0.00 | 0.00 | 0.00 | 87 | 1012.7 |
| 20260905134356 | 83 | 200 | 0.0 | 0.0 | 0.00 | 0.00 | 0.00 | 87 | 1012.6 |
| 20260905134255 | 83 | 200 | 0.0 | 0.0 | 0.00 | 0.00 | 0.00 | 87 | 1012.7 |
| 20260905134154 | 83 | 200 | 0.0 | 0.0 | 0.00 | 0.00 | 0.00 | 87 | 1012.6 |
| 20260905134055 | 83 | 200 | 0.0 | 0.0 | 0.00 | 0.00 | 0.00 | 87 | 1012.6 |
| 20260905133953 | 83 | 200 | 0.0 | 0.0 | 0.00 | 0.00 | 0.00 | 88 | 1012.6 |
| 20260905133854 | 83 | 200 | 0.0 | 0.0 | 0.00 | 0.00 | 0.00 | 88 | 1012.6 |
| 20260905133755 | 83 | 200 | 0.0 | 0.0 | 0.00 | 0.00 | 0.00 | 88 | 1012.6 |
| 20260905133655 | 83 | 200 | 0.0 | 0.0 | 0.00 | 0.00 | 0.00 | 88 | 1012.7 |
| 20260905133553 | 83 | 200 | 0.0 | 0.0 | 0.00 | 0.00 | 0.00 | 88 | 1012.6 |
| 20260905133453 | 83 | 200 | 0.0 | 0.0 | 0.00 | 0.00 | 0.00 | 88 | 1012.6 |
| 20260905133354 | 83 | 200 | 0.0 | 0.0 | 0.00 | 0.00 | 0.00 | 88 | 1012.7 |
| 20260905133255 | 82 | 199 | 0.0 | 0.0 | 0.00 | 0.00 | 0.00 | 89 | 1012.6 |
| 20260905133154 | 82 | 199 | 0.0 | 0.0 | 0.00 | 0.00 | 0.00 | 89 | 1012.5 |
| 20260905133054 | 82 | 199 | 0.0 | 0.0 | 0.00 | 0.00 | 0.00 | 89 | 1012.6 |
| 20260905132954 | 82 | 199 | 0.0 | 0.0 | 0.00 | 0.00 | 0.00 | 89 | 1012.6 |
| 20260905132853 | 82 | 199 | 0.0 | 0.0 | 0.00 | 0.00 | 0.00 | 89 | 1012.5 |
| 20260905132752 | 82 | 199 | 0.0 | 0.0 | 0.00 | 0.00 | 0.00 | 89 | 1012.6 |
| 20260905132652 | 82 | 199 | 0.0 | 0.0 | 0.00 | 0.00 | 0.00 | 89 | 1012.5 |
| 20260905132552 | 82 | 199 | 0.0 | 0.0 | 0.00 | 0.00 | 0.00 | 89 | 1012.6 |
| 20260905132452 | 82 | 199 | 0.0 | 0.0 | 0.00 | 0.00 | 0.00 | 89 | 1012.6 |
| 20260905132352 | 82 | 199 | 0.0 | 0.0 | 0.00 | 0.00 | 0.00 | 89 | 1012.5 |
| 20260905132254 | 82 | 199 | 0.0 | 0.0 | 0.00 | 0.00 | 0.00 | 89 | 1012.6 |
| 20260905132152 | 82 | 199 | 0.0 | 0.0 | 0.00 | 0.00 | 0.00 | 89 | 1012.6 |
| 20260905132052 | 82 | 199 | 0.0 | 0.0 | 0.00 | 0.00 | 0.00 | 89 | 1012.6 |
| 20260905131952 | 82 | 199 | 0.0 | 0.0 | 0.00 | 0.00 | 0.00 | 89 | 1012.6 |
| 20260905131851 | 82 | 199 | 0.0 | 0.0 | 0.00 | 0.00 | 0.00 | 89 | 1012.6 |
| 20260905131754 | 82 | 199 | 0.0 | 0.0 | 0.00 | 0.00 | 0.00 | 89 | 1012.6 |
| 20260905131651 | 82 | 199 | 0.0 | 0.0 | 0.00 | 0.00 | 0.00 | 89 | 1012.6 |
| 20260905131552 | 82 | 199 | 0.0 | 0.0 | 0.00 | 0.00 | 0.00 | 89 | 1012.6 |
| 20260905131452 | 82 | 199 | 0.0 | 0.0 | 0.00 | 0.00 | 0.00 | 89 | 1012.6 |
| 20260905131352 | 82 | 199 | 0.0 | 0.0 | 0.00 | 0.00 | 0.00 | 89 | 1012.6 |
| 20260905131252 | 82 | 199 | 0.0 | 0.0 | 0.00 | 0.00 | 0.00 | 89 | 1012.6 |
| 20260905131153 | 82 | 199 | 0.0 | 0.0 | 0.00 | 0.00 | 0.00 | 89 | 1012.6 |
| 20260905131051 | 82 | 199 | 0.0 | 0.0 | 0.00 | 0.00 | 0.00 | 89 | 1012.6 |
| 20260905130951 | 81 | 199 | 0.0 | 0.0 | 0.00 | 0.00 | 0.00 | 90 | 1012.6 |
| 20260905130852 | 81 | 0 | 0.0 | 0.0 | 0.00 | 0.00 | 0.00 | 90 | 1012.6 |
| 20260905130752 | 81 | 0 | 0.0 | 0.0 | 0.00 | 0.00 | 0.00 | 90 | 1012.6 |
| 20260905130650 | 81 | 0 | 0.0 | 0.0 | 0.00 | 0.00 | 0.00 | 90 | 1012.6 |
| 20260905130552 | 81 | 0 | 0.0 | 0.0 | 0.00 | 0.00 | 0.00 | 90 | 1012.6 |
| 20260905130451 | 81 | 0 | 0.0 | 0.0 | 0.00 | 0.00 | 0.00 | 90 | 1012.6 |
| 20260905130351 | 81 | 0 | 0.0 | 0.0 | 0.00 | 0.00 | 0.00 | 90 | 1012.6 |
| 20260905130250 | 81 | 0 | 0.0 | 0.0 | 0.00 | 0.00 | 0.00 | 90 | 1012.6 |
| 20260905130151 | 81 | 0 | 0.0 | 0.0 | 0.00 | 0.00 | 0.00 | 90 | 1012.6 |
| 20260905130051 | 81 | 0 | 0.0 | 0.0 | 0.00 | 0.00 | 0.00 | 90 | 1012.6 |
| 20260905125949 | 81 | 0 | 0.0 | 0.0 | 0.00 | 0.00 | 0.00 | 90 | 1012.6 |
| 20260905125850 | 81 | 0 | 0.0 | 0.0 | 0.00 | 0.00 | 0.00 | 90 | 1012.6 |
| 20260905125750 | 81 | 0 | 0.0 | 0.0 | 0.00 | 0.00 | 0.00 | 90 | 1012.6 |
| 20260905125649 | 81 | 0 | 0.0 | 0.0 | 0.00 | 0.00 | 0.00 | 90 | 1012.6 |
| 20260905125551 | 81 | 0 | 0.0 | 0.0 | 0.00 | 0.00 | 0.00 | 90 | 1012.6 |
| 20260905125451 | 81 | 0 | 0.0 | 0.0 | 0.00 | 0.00 | 0.00 | 90 | 1012.6 |
| 20260905125351 | 81 | 0 | 0.0 | 0.0 | 0.00 | 0.00 | 0.00 | 90 | 1012.5 |
| 20260905125249 | 81 | 0 | 0.0 | 0.0 | 0.00 | 0.00 | 0.00 | 90 | 1012.5 |
| 20260905125151 | 81 | 0 | 0.0 | 0.0 | 0.00 | 0.00 | 0.00 | 90 | 1012.6 |
| 20260905125049 | 81 | 0 | 0.0 | 0.0 | 0.00 | 0.00 | 0.00 | 90 | 1012.6 |
| 20260905124950 | 81 | 0 | 0.0 | 0.0 | 0.00 | 0.00 | 0.00 | 90 | 1012.6 |
| 20260905124850 | 80 | 0 | 0.0 | 0.0 | 0.00 | 0.00 | 0.00 | 90 | 1012.5 |
| 20260905124750 | 80 | 0 | 0.0 | 0.0 | 0.00 | 0.00 | 0.00 | 90 | 1012.5 |
| 20260905124650 | 80 | 0 | 0.0 | 0.0 | 0.00 | 0.00 | 0.00 | 90 | 1012.5 |
| 20260905124549 | 80 | 0 | 0.0 | 0.0 | 0.00 | 0.00 | 0.00 | 90 | 1012.4 |
| 20260905124450 | 80 | 0 | 0.0 | 0.0 | 0.00 | 0.00 | 0.00 | 90 | 1012.5 |
| 20260905124349 | 80 | 0 | 0.0 | 0.0 | 0.00 | 0.00 | 0.00 | 90 | 1012.4 |
| 20260905124249 | 80 | 0 | 0.0 | 0.0 | 0.00 | 0.00 | 0.00 | 90 | 1012.4 |
| 20260905124150 | 80 | 0 | 0.0 | 0.0 | 0.00 | 0.00 | 0.00 | 90 | 1012.4 |
| 20260905124048 | 80 | 0 | 0.0 | 0.0 | 0.00 | 0.00 | 0.00 | 90 | 1012.4 |
| 20260905123949 | 80 | 0 | 0.0 | 0.0 | 0.00 | 0.00 | 0.00 | 90 | 1012.4 |
| 20260905123848 | 80 | 0 | 0.0 | 0.0 | 0.00 | 0.00 | 0.00 | 90 | 1012.4 |
| 20260905123750 | 80 | 0 | 0.0 | 0.0 | 0.00 | 0.00 | 0.00 | 90 | 1012.3 |
| 20260905123650 | 80 | 0 | 0.0 | 0.0 | 0.00 | 0.00 | 0.00 | 90 | 1012.3 |
| 20260905123549 | 80 | 0 | 0.0 | 0.0 | 0.00 | 0.00 | 0.00 | 90 | 1012.4 |
| 20260905123449 | 80 | 0 | 0.0 | 0.0 | 0.00 | 0.00 | 0.00 | 90 | 1012.3 |
| 20260905123348 | 80 | 0 | 0.0 | 0.0 | 0.00 | 0.00 | 0.00 | 90 | 1012.3 |
| 20260905123249 | 80 | 0 | 0.0 | 0.0 | 0.00 | 0.00 | 0.00 | 90 | 1012.3 |
| 20260905123148 | 80 | 0 | 0.0 | 0.0 | 0.00 | 0.00 | 0.00 | 90 | 1012.2 |
| 20260905123049 | 80 | 0 | 0.0 | 0.0 | 0.00 | 0.00 | 0.00 | 90 | 1012.3 |
| 20260905122950 | 80 | 0 | 0.0 | 0.0 | 0.00 | 0.00 | 0.00 | 90 | 1012.3 |
| 20260905122849 | 80 | 0 | 0.0 | 0.0 | 0.00 | 0.00 | 0.00 | 90 | 1012.3 |
| 20260905122748 | 80 | 0 | 0.0 | 0.0 | 0.00 | 0.00 | 0.00 | 90 | 1012.2 |
| 20260905122648 | 80 | 0 | 0.0 | 0.0 | 0.00 | 0.00 | 0.00 | 90 | 1012.2 |
| 20260905122549 | 80 | 0 | 0.0 | 0.0 | 0.00 | 0.00 | 0.00 | 90 | 1012.2 |
| 20260905122449 | 80 | 0 | 0.0 | 0.0 | 0.00 | 0.00 | 0.00 | 90 | 1012.2 |
| 20260905122349 | 80 | 0 | 0.0 | 0.0 | 0.00 | 0.00 | 0.00 | 90 | 1012.2 |
| 20260905122249 | 80 | 0 | 0.0 | 0.0 | 0.00 | 0.00 | 0.00 | 90 | 1012.1 |
| 20260905122148 | 80 | 0 | 0.0 | 0.0 | 0.00 | 0.00 | 0.00 | 90 | 1012.1 |
| 20260905122049 | 80 | 0 | 0.0 | 0.0 | 0.00 | 0.00 | 0.00 | 90 | 1012.2 |
| 20260905121948 | 80 | 0 | 0.0 | 0.0 | 0.00 | 0.00 | 0.00 | 90 | 1012.1 |
| 20260905121850 | 80 | 0 | 0.0 | 0.0 | 0.00 | 0.00 | 0.00 | 90 | 1012.1 |
| 20260905121749 | 80 | 0 | 0.0 | 0.0 | 0.00 | 0.00 | 0.00 | 90 | 1012.1 |
| 20260905121649 | 80 | 0 | 0.0 | 0.0 | 0.00 | 0.00 | 0.00 | 90 | 1012.1 |
| 20260905121548 | 80 | 0 | 0.0 | 0.0 | 0.00 | 0.00 | 0.00 | 90 | 1012.1 |
| 20260905121448 | 80 | 0 | 0.0 | 0.0 | 0.00 | 0.00 | 0.00 | 90 | 1012.0 |
| 20260905121349 | 80 | 0 | 0.0 | 0.0 | 0.00 | 0.00 | 0.00 | 90 | 1012.0 |
| 20260905121249 | 80 | 0 | 0.0 | 0.0 | 0.00 | 0.00 | 0.00 | 90 | 1012.1 |
| 20260905121150 | 80 | 0 | 0.0 | 0.0 | 0.00 | 0.00 | 0.00 | 90 | 1012.1 |
| 20260905121049 | 80 | 0 | 0.0 | 0.0 | 0.00 | 0.00 | 0.00 | 90 | 1012.0 |
| 20260905120949 | 80 | 0 | 0.0 | 0.0 | 0.00 | 0.00 | 0.00 | 91 | 1012.0 |
| 20260905120848 | 80 | 0 | 0.0 | 0.0 | 0.00 | 0.00 | 0.00 | 91 | 1012.0 |
| 20260905120747 | 80 | 0 | 0.0 | 0.0 | 0.00 | 0.00 | 0.00 | 91 | 1012.0 |
| 20260905120648 | 80 | 0 | 0.0 | 0.0 | 0.00 | 0.00 | 0.00 | 91 | 1012.0 |
| 20260905120547 | 80 | 0 | 0.0 | 0.0 | 0.00 | 0.00 | 0.00 | 91 | 1012.0 |
| 20260905120448 | 80 | 0 | 0.0 | 0.0 | 0.00 | 0.00 | 0.00 | 91 | 1012.0 |
| 20260905120347 | 80 | 0 | 0.0 | 0.0 | 0.00 | 0.00 | 0.00 | 91 | 1011.9 |
| 20260905120249 | 80 | 0 | 0.0 | 0.0 | 0.00 | 0.00 | 0.00 | 91 | 1011.9 |
| 20260905120147 | 80 | 0 | 0.0 | 0.0 | 0.00 | 0.00 | 0.00 | 91 | 1011.9 |
| 20260905120033 | 80 | 0 | 0.0 | 0.0 | 0.00 | 0.00 | 0.00 | 91 | 1011.9 |
| 20260905115932 | 80 | 0 | 0.0 | 0.0 | 0.00 | 0.00 | 0.00 | 91 | 1011.8 |
| 20260905115832 | 80 | 0 | 0.0 | 0.0 | 0.00 | 0.00 | 0.00 | 91 | 1011.9 |
| 20260905115725 | 80 | 0 | 0.0 | 0.0 | 0.00 | 0.00 | 0.00 | 91 | 1011.9 |
| 20260905115603 | 80 | 0 | 0.0 | 0.0 | 0.00 | 0.00 | 0.00 | 91 | 1011.8 |
| 20260905115504 | 80 | 0 | 0.0 | 0.0 | 0.00 | 0.00 | 0.00 | 91 | 1011.8 |
| 20260905115404 | 80 | 0 | 0.0 | 0.0 | 0.00 | 0.00 | 0.00 | 91 | 1011.7 |
| 20260905115306 | 80 | 0 | 0.0 | 0.0 | 0.00 | 0.00 | 0.00 | 91 | 1011.8 |
| 20260905115202 | 80 | 0 | 0.0 | 0.0 | 0.00 | 0.00 | 0.00 | 91 | 1011.8 |
| 20260905115102 | 80 | 0 | 0.0 | 0.0 | 0.00 | 0.00 | 0.00 | 91 | 1011.8 |
| 20260905115002 | 80 | 0 | 0.0 | 0.0 | 0.00 | 0.00 | 0.00 | 91 | 1011.7 |
| 20260905114902 | 80 | 0 | 0.0 | 0.0 | 0.00 | 0.00 | 0.00 | 91 | 1011.7 |
| 20260905114803 | 80 | 0 | 0.0 | 0.0 | 0.00 | 0.00 | 0.00 | 91 | 1011.7 |
| 20260905114704 | 80 | 0 | 0.0 | 0.0 | 0.00 | 0.00 | 0.00 | 91 | 1011.7 |
| 20260905114604 | 80 | 0 | 0.0 | 0.0 | 0.00 | 0.00 | 0.00 | 91 | 1011.7 |
| 20260905114503 | 80 | 0 | 0.0 | 0.0 | 0.00 | 0.00 | 0.00 | 91 | 1011.7 |
| 20260905114403 | 80 | 0 | 0.0 | 0.0 | 0.00 | 0.00 | 0.00 | 91 | 1011.7 |
| 20260905114302 | 80 | 0 | 0.0 | 0.0 | 0.00 | 0.00 | 0.00 | 91 | 1011.6 |
| 20260905114203 | 0 | 0.0 | 0.0 | 0.00 | 0.00 | 0.00 | 1011.7 | ||
| 20260905114103 | 80 | 0 | 0.0 | 0.0 | 0.00 | 0.00 | 0.00 | 91 | 1011.6 |
| 20260905114003 | 80 | 0 | 0.0 | 0.0 | 0.00 | 0.00 | 0.00 | 91 | 1011.6 |
| 20260905113903 | 80 | 0 | 0.0 | 0.0 | 0.00 | 0.00 | 0.00 | 91 | 1011.6 |
| 20260905113803 | 80 | 0 | 0.0 | 0.0 | 0.00 | 0.00 | 0.00 | 91 | 1011.5 |
| 20260905113705 | 80 | 0 | 0.0 | 0.0 | 0.00 | 0.00 | 0.00 | 91 | 1011.6 |
| 20260905113603 | 80 | 0 | 0.0 | 0.0 | 0.00 | 0.00 | 0.00 | 91 | 1011.5 |
| 20260905113505 | 80 | 0 | 0.0 | 0.0 | 0.00 | 0.00 | 0.00 | 91 | 1011.5 |
| 20260905113403 | 80 | 0 | 0.0 | 0.0 | 0.00 | 0.00 | 0.00 | 91 | 1011.5 |
| 20260905113304 | 80 | 0 | 0.0 | 0.0 | 0.00 | 0.00 | 0.00 | 91 | 1011.4 |
| 20260905113203 | 80 | 0 | 0.0 | 0.0 | 0.00 | 0.00 | 0.00 | 91 | 1011.5 |
| 20260905113103 | 80 | 0 | 0.0 | 0.0 | 0.00 | 0.00 | 0.00 | 91 | 1011.4 |
| 20260905113003 | 80 | 0 | 0.0 | 0.0 | 0.00 | 0.00 | 0.00 | 91 | 1011.5 |
| 20260905112903 | 80 | 0 | 0.0 | 0.0 | 0.00 | 0.00 | 0.00 | 90 | 1011.5 |
| 20260905112803 | 80 | 0 | 0.0 | 0.0 | 0.00 | 0.00 | 0.00 | 90 | 1011.4 |
| 20260905112703 | 80 | 0 | 0.0 | 0.0 | 0.00 | 0.00 | 0.00 | 90 | 1011.4 |
| 20260905112602 | 80 | 0 | 0.0 | 0.0 | 0.00 | 0.00 | 0.00 | 90 | 1011.4 |
| 20260905112502 | 80 | 0 | 0.0 | 0.0 | 0.00 | 0.00 | 0.00 | 90 | 1011.4 |
| 20260905112404 | 80 | 0 | 0.0 | 0.0 | 0.00 | 0.00 | 0.00 | 90 | 1011.5 |
| 20260905112305 | 80 | 0 | 0.0 | 0.0 | 0.00 | 0.00 | 0.00 | 90 | 1011.5 |
| 20260905112202 | 80 | 0 | 0.0 | 0.0 | 0.00 | 0.00 | 0.00 | 90 | 1011.5 |
| 20260905112104 | 80 | 0 | 0.0 | 0.0 | 0.00 | 0.00 | 0.00 | 91 | 1011.4 |
| 20260905112002 | 80 | 0 | 0.0 | 0.0 | 0.00 | 0.00 | 0.00 | 91 | 1011.4 |
| 20260905111902 | 80 | 0 | 0.0 | 0.0 | 0.00 | 0.00 | 0.00 | 91 | 1011.4 |
| 20260905111802 | 80 | 0 | 0.0 | 0.0 | 0.00 | 0.00 | 0.00 | 91 | 1011.4 |
| 20260905111703 | 80 | 0 | 0.0 | 0.0 | 0.00 | 0.00 | 0.00 | 91 | 1011.4 |
| 20260905111602 | 80 | 0 | 0.0 | 0.0 | 0.00 | 0.00 | 0.00 | 91 | 1011.4 |
| 20260905111503 | 80 | 0 | 0.0 | 0.0 | 0.00 | 0.00 | 0.00 | 91 | 1011.3 |
| 20260905111402 | 80 | 0 | 0.0 | 0.0 | 0.00 | 0.00 | 0.00 | 91 | 1011.4 |
| 20260905111302 | 80 | 0 | 0.0 | 0.0 | 0.00 | 0.00 | 0.00 | 91 | 1011.4 |
| 20260905111204 | 80 | 0 | 0.0 | 0.0 | 0.00 | 0.00 | 0.00 | 91 | 1011.4 |
| 20260905111103 | 80 | 0 | 0.0 | 0.0 | 0.00 | 0.00 | 0.00 | 91 | 1011.4 |
| 20260905111005 | 80 | 0 | 0.0 | 0.0 | 0.00 | 0.00 | 0.00 | 91 | 1011.4 |
| 20260905110903 | 80 | 0 | 0.0 | 0.0 | 0.00 | 0.00 | 0.00 | 91 | 1011.3 |
| 20260905110803 | 80 | 0 | 0.0 | 0.0 | 0.00 | 0.00 | 0.00 | 91 | 1011.4 |
| 20260905110704 | 80 | 0 | 0.0 | 0.0 | 0.00 | 0.00 | 0.00 | 91 | 1011.3 |
| 20260905110604 | 80 | 0 | 0.0 | 0.0 | 0.00 | 0.00 | 0.00 | 91 | 1011.3 |
| 20260905110501 | 80 | 0 | 0.0 | 0.0 | 0.00 | 0.00 | 0.00 | 91 | 1011.3 |
| 20260905110359 | 80 | 0 | 0.0 | 0.0 | 0.00 | 0.00 | 0.00 | 91 | 1011.2 |
| 20260905110257 | 80 | 0 | 0.0 | 0.0 | 0.00 | 0.00 | 0.00 | 91 | 1011.3 |
| 20260905110156 | 80 | 0 | 0.0 | 0.0 | 0.00 | 0.00 | 0.00 | 91 | 1011.3 |
| 20260905110055 | 80 | 0 | 0.0 | 0.0 | 0.00 | 0.00 | 0.00 | 91 | 1011.3 |
| 20260905105952 | 80 | 0 | 0.0 | 0.0 | 0.00 | 0.00 | 0.00 | 91 | 1011.3 |
| 20260905105852 | 80 | 0 | 0.0 | 0.0 | 0.00 | 0.00 | 0.00 | 91 | 1011.3 |
| 20260905105751 | 80 | 0 | 0.0 | 0.0 | 0.00 | 0.00 | 0.00 | 91 | 1011.2 |
| 20260905105647 | 80 | 0 | 0.0 | 0.0 | 0.00 | 0.00 | 0.00 | 91 | 1011.3 |
| 20260905105545 | 80 | 0 | 0.0 | 0.0 | 0.00 | 0.00 | 0.00 | 91 | 1011.2 |
| 20260905105447 | 80 | 0 | 0.0 | 0.0 | 0.00 | 0.00 | 0.00 | 91 | 1011.3 |
| 20260905105343 | 80 | 0 | 0.0 | 0.0 | 0.00 | 0.00 | 0.00 | 91 | 1011.2 |
| 20260905105243 | 80 | 0 | 0.0 | 0.0 | 0.00 | 0.00 | 0.00 | 91 | 1011.2 |
| 20260905105142 | 80 | 0 | 0.0 | 0.0 | 0.00 | 0.00 | 0.00 | 91 | 1011.2 |
| 20260905105043 | 80 | 0 | 0.0 | 0.0 | 0.00 | 0.00 | 0.00 | 91 | 1011.2 |
| 20260905104944 | 80 | 0 | 0.0 | 0.0 | 0.00 | 0.00 | 0.00 | 91 | 1011.2 |
| 20260905104842 | 80 | 0 | 0.0 | 0.0 | 0.00 | 0.00 | 0.00 | 91 | 1011.2 |
| 20260905104743 | 80 | 0 | 0.0 | 0.0 | 0.00 | 0.00 | 0.00 | 91 | 1011.2 |
| 20260905104642 | 80 | 0 | 0.0 | 0.0 | 0.00 | 0.00 | 0.00 | 91 | 1011.2 |
| 20260905104544 | 80 | 0 | 0.0 | 0.0 | 0.00 | 0.00 | 0.00 | 91 | 1011.2 |
| 20260905104443 | 80 | 0 | 0.0 | 0.0 | 0.00 | 0.00 | 0.00 | 91 | 1011.2 |
| 20260905104342 | 80 | 0 | 0.0 | 0.0 | 0.00 | 0.00 | 0.00 | 91 | 1011.2 |
| 20260905104243 | 80 | 0 | 0.0 | 0.0 | 0.00 | 0.00 | 0.00 | 91 | 1011.2 |
| 20260905104142 | 80 | 0 | 0.0 | 0.0 | 0.00 | 0.00 | 0.00 | 91 | 1011.2 |
| 20260905104042 | 80 | 0 | 0.0 | 0.0 | 0.00 | 0.00 | 0.00 | 91 | 1011.2 |
| 20260905103944 | 80 | 0 | 0.0 | 0.0 | 0.00 | 0.00 | 0.00 | 91 | 1011.2 |
| 20260905103844 | 80 | 0 | 0.0 | 0.0 | 0.00 | 0.00 | 0.00 | 91 | 1011.2 |
| 20260905103744 | 80 | 0 | 0.0 | 0.0 | 0.00 | 0.00 | 0.00 | 91 | 1011.2 |
| 20260905103642 | 80 | 0 | 0.0 | 0.0 | 0.00 | 0.00 | 0.00 | 91 | 1011.3 |
| 20260905103543 | 80 | 0 | 0.0 | 0.0 | 0.00 | 0.00 | 0.00 | 91 | 1011.2 |
| 20260905103444 | 80 | 0 | 0.0 | 0.0 | 0.00 | 0.00 | 0.00 | 91 | 1011.3 |
| 20260905103343 | 80 | 0 | 0.0 | 0.0 | 0.00 | 0.00 | 0.00 | 91 | 1011.2 |
| 20260905103243 | 80 | 0 | 0.0 | 0.0 | 0.00 | 0.00 | 0.00 | 90 | 1011.2 |
| 20260905103142 | 80 | 0 | 0.0 | 0.0 | 0.00 | 0.00 | 0.00 | 90 | 1011.3 |
| 20260905103043 | 80 | 0 | 0.0 | 0.0 | 0.00 | 0.00 | 0.00 | 90 | 1011.2 |
| 20260905102943 | 80 | 0 | 0.0 | 0.0 | 0.00 | 0.00 | 0.00 | 90 | 1011.2 |
| 20260905102842 | 80 | 0 | 0.0 | 0.0 | 0.00 | 0.00 | 0.00 | 90 | 1011.3 |
| 20260905102742 | 80 | 0 | 0.0 | 0.0 | 0.00 | 0.00 | 0.00 | 90 | 1011.2 |
| 20260905102643 | 80 | 0 | 0.0 | 0.0 | 0.00 | 0.00 | 0.00 | 90 | 1011.2 |
| 20260905102543 | 80 | 0 | 0.0 | 0.0 | 0.00 | 0.00 | 0.00 | 90 | 1011.2 |
| 20260905102443 | 80 | 0 | 0.0 | 0.0 | 0.00 | 0.00 | 0.00 | 90 | 1011.1 |
| 20260905102342 | 80 | 0 | 0.0 | 0.0 | 0.00 | 0.00 | 0.00 | 90 | 1011.2 |
| 20260905102243 | 80 | 0 | 0.0 | 0.0 | 0.00 | 0.00 | 0.00 | 90 | 1011.2 |
| 20260905102143 | 80 | 0 | 0.0 | 0.0 | 0.00 | 0.00 | 0.00 | 90 | 1011.1 |
| 20260905102041 | 80 | 0 | 0.0 | 0.0 | 0.00 | 0.00 | 0.00 | 90 | 1011.2 |
| 20260905101942 | 80 | 0 | 0.0 | 0.0 | 0.00 | 0.00 | 0.00 | 90 | 1011.2 |
| 20260905101844 | 80 | 0 | 0.0 | 0.0 | 0.00 | 0.00 | 0.00 | 90 | 1011.2 |
| 20260905101742 | 80 | 0 | 0.0 | 0.0 | 0.00 | 0.00 | 0.00 | 90 | 1011.2 |
| 20260905101645 | 80 | 0 | 0.0 | 0.0 | 0.00 | 0.00 | 0.00 | 90 | 1011.3 |
| 20260905101543 | 80 | 0 | 0.0 | 0.0 | 0.00 | 0.00 | 0.00 | 90 | 1011.2 |
| 20260905101443 | 80 | 0 | 0.0 | 0.0 | 0.00 | 0.00 | 0.00 | 90 | 1011.3 |
| 20260905101341 | 80 | 0 | 0.0 | 0.0 | 0.00 | 0.00 | 0.00 | 90 | 1011.3 |
| 20260905101243 | 80 | 0 | 0.0 | 0.0 | 0.00 | 0.00 | 0.00 | 90 | 1011.3 |
| 20260905101143 | 80 | 0 | 0.0 | 0.0 | 0.00 | 0.00 | 0.00 | 90 | 1011.3 |
| 20260905101042 | 80 | 0 | 0.0 | 0.0 | 0.00 | 0.00 | 0.00 | 90 | 1011.3 |
| 20260905100942 | 80 | 0 | 0.0 | 0.0 | 0.00 | 0.00 | 0.00 | 90 | 1011.3 |
| 20260905100841 | 80 | 0 | 0.0 | 0.0 | 0.00 | 0.00 | 0.00 | 90 | 1011.3 |
| 20260905100743 | 80 | 0 | 0.0 | 0.0 | 0.00 | 0.00 | 0.00 | 90 | 1011.3 |
| 20260905100643 | 80 | 0 | 0.0 | 0.0 | 0.00 | 0.00 | 0.00 | 90 | 1011.2 |
| 20260905100542 | 80 | 0 | 0.0 | 0.0 | 0.00 | 0.00 | 0.00 | 90 | 1011.3 |
| 20260905100443 | 80 | 0 | 0.0 | 0.0 | 0.00 | 0.00 | 0.00 | 90 | 1011.2 |
| 20260905100341 | 80 | 0 | 0.0 | 0.0 | 0.00 | 0.00 | 0.00 | 90 | 1011.2 |
| 20260905100242 | 80 | 0 | 0.0 | 0.0 | 0.00 | 0.00 | 0.00 | 90 | 1011.2 |
| 20260905100142 | 80 | 0 | 0.0 | 0.0 | 0.00 | 0.00 | 0.00 | 90 | 1011.2 |
| 20260905100034 | 80 | 0 | 0.0 | 0.0 | 0.00 | 0.00 | 0.00 | 90 | 1011.1 |
| 20260905095932 | 80 | 0 | 0.0 | 0.0 | 0.00 | 0.00 | 0.00 | 90 | 1011.2 |
| 20260905095833 | 80 | 0 | 0.0 | 0.0 | 0.00 | 0.00 | 0.00 | 90 | 1011.1 |
| 20260905095732 | 80 | 0 | 0.0 | 0.0 | 0.00 | 0.00 | 0.00 | 90 | 1011.2 |
| 20260905095632 | 80 | 0 | 0.0 | 0.0 | 0.00 | 0.00 | 0.00 | 90 | 1011.2 |
| 20260905095532 | 80 | 0 | 0.0 | 0.0 | 0.00 | 0.00 | 0.00 | 90 | 1011.2 |
| 20260905095432 | 80 | 0 | 0.0 | 0.0 | 0.00 | 0.00 | 0.00 | 90 | 1011.3 |
| 20260905095332 | 80 | 0 | 0.0 | 0.0 | 0.00 | 0.00 | 0.00 | 90 | 1011.2 |
| 20260905095232 | 80 | 0 | 0.0 | 0.0 | 0.00 | 0.00 | 0.00 | 90 | 1011.3 |
| 20260905095131 | 80 | 0 | 0.0 | 0.0 | 0.00 | 0.00 | 0.00 | 90 | 1011.3 |
| 20260905095033 | 0 | 0.0 | 0.0 | 0.00 | 0.00 | 0.00 | 1011.2 | ||
| 20260905094933 | 0 | 0.0 | 0.0 | 0.00 | 0.00 | 0.00 | 1011.2 | ||
| 20260905094832 | 0 | 0.0 | 0.0 | 0.00 | 0.00 | 0.00 | 1011.2 | ||
| 20260905094732 | 0 | 0.0 | 0.0 | 0.00 | 0.00 | 0.00 | 1011.2 | ||
| 20260905094632 | 0 | 0.0 | 0.0 | 0.00 | 0.00 | 0.00 | 1011.2 | ||
| 20260905094532 | 0 | 0.0 | 0.0 | 0.00 | 0.00 | 0.00 | 1011.2 | ||
| 20260905094432 | 0 | 0.0 | 0.0 | 0.00 | 0.00 | 0.00 | 1011.2 | ||
| 20260905094332 | 0 | 0.0 | 0.0 | 0.00 | 0.00 | 0.00 | 1011.2 | ||
| 20260905094233 | 0 | 0.0 | 0.0 | 0.00 | 0.00 | 0.00 | 1011.2 | ||
| 20260905094132 | 0 | 0.0 | 0.0 | 0.00 | 0.00 | 0.00 | 1011.2 | ||
| 20260905094004 | 0 | 0.0 | 0.0 | 0.00 | 0.00 | 0.00 | 1011.2 | ||
| 20260905093904 | 0 | 0.0 | 0.0 | 0.00 | 0.00 | 0.00 | 1011.2 | ||
| 20260905093803 | 0 | 0.0 | 0.0 | 0.00 | 0.00 | 0.00 | 1011.1 | ||
| 20260905093704 | 80 | 0 | 0.0 | 0.0 | 0.00 | 0.00 | 0.00 | 89 | 1011.2 |
| 20260905093603 | 80 | 0 | 0.0 | 0.0 | 0.00 | 0.00 | 0.00 | 89 | 1011.2 |
| 20260905093504 | 80 | 0 | 0.0 | 0.0 | 0.00 | 0.00 | 0.00 | 89 | 1011.2 |
| 20260905093403 | 80 | 0 | 0.0 | 0.0 | 0.00 | 0.00 | 0.00 | 89 | 1011.1 |
| 20260905093304 | 80 | 0 | 0.0 | 0.0 | 0.00 | 0.00 | 0.00 | 89 | 1011.2 |
| 20260905093204 | 80 | 0 | 0.0 | 0.0 | 0.00 | 0.00 | 0.00 | 89 | 1011.1 |
| 20260905093104 | 80 | 0 | 0.0 | 0.0 | 0.00 | 0.00 | 0.00 | 89 | 1011.2 |
| 20260905093005 | 80 | 0 | 0.0 | 0.0 | 0.00 | 0.00 | 0.00 | 89 | 1011.2 |
| 20260905092903 | 80 | 0 | 0.0 | 0.0 | 0.00 | 0.00 | 0.00 | 89 | 1011.1 |
| 20260905092803 | 80 | 0 | 0.0 | 0.0 | 0.00 | 0.00 | 0.00 | 89 | 1011.2 |
| 20260905092702 | 80 | 0 | 0.0 | 0.0 | 0.00 | 0.00 | 0.00 | 89 | 1011.2 |
| 20260905092604 | 80 | 0 | 0.0 | 0.0 | 0.00 | 0.00 | 0.00 | 89 | 1011.2 |
| 20260905092504 | 0 | 0 | 0.0 | 0.0 | 0.00 | 0.00 | 0.00 | 1011.2 | |
| 20260905092403 | 0 | 0.0 | 0.0 | 0.00 | 0.00 | 0.00 | 1011.3 | ||
| 20260905092306 | 0 | 0.0 | 0.0 | 0.00 | 0.00 | 0.00 | 1011.2 | ||
| 20260905092203 | 0 | 0.0 | 0.0 | 0.00 | 0.00 | 0.00 | 1011.3 | ||
| 20260905092103 | 81 | 0 | 0.0 | 0.0 | 0.00 | 0.00 | 0.00 | 89 | 1011.2 |
| 20260905092004 | 81 | 0 | 0.0 | 0.0 | 0.00 | 0.00 | 0.00 | 89 | 1011.3 |
| 20260905091903 | 81 | 0 | 0.0 | 0.0 | 0.00 | 0.00 | 0.00 | 89 | 1011.3 |
| 20260905091803 | 81 | 0 | 0.0 | 0.0 | 0.00 | 0.00 | 0.00 | 89 | 1011.2 |
| 20260905091703 | 81 | 0 | 0.0 | 0.0 | 0.00 | 0.00 | 0.00 | 89 | 1011.2 |
| 20260905091603 | 81 | 0 | 0.0 | 0.0 | 0.00 | 0.00 | 0.00 | 89 | 1011.3 |
| 20260905091503 | 81 | 0 | 0.0 | 0.0 | 0.00 | 0.00 | 0.00 | 89 | 1011.3 |
| 20260905091403 | 81 | 0 | 0.0 | 0.0 | 0.00 | 0.00 | 0.00 | 89 | 1011.2 |
| 20260905091304 | 81 | 0 | 0.0 | 0.0 | 0.00 | 0.00 | 0.00 | 89 | 1011.2 |
| 20260905091203 | 81 | 0 | 0.0 | 0.0 | 0.00 | 0.01 | 0.00 | 89 | 1011.2 |
| 20260905091100 | 81 | 0 | 0.0 | 0.0 | 0.00 | 0.01 | 0.00 | 89 | 1011.2 |
| 20260905090957 | 81 | 0 | 0.0 | 0.0 | 0.00 | 0.01 | 0.00 | 89 | 1011.2 |
| 20260905090853 | 81 | 0 | 0.0 | 0.0 | 0.00 | 0.01 | 0.00 | 89 | 1011.2 |
| 20260905090751 | 81 | 0 | 0.0 | 0.0 | 0.00 | 0.01 | 0.00 | 89 | 1011.2 |
| 20260905090650 | 81 | 0 | 0.0 | 0.0 | 0.00 | 0.01 | 0.00 | 89 | 1011.2 |
| 20260905090542 | 81 | 0 | 0.0 | 0.0 | 0.00 | 0.01 | 0.00 | 89 | 1011.3 |
| 20260905090440 | 81 | 0 | 0.0 | 0.0 | 0.00 | 0.01 | 0.00 | 89 | 1011.2 |
| 20260905090336 | 81 | 0 | 0.0 | 0.0 | 0.00 | 0.01 | 0.00 | 89 | 1011.3 |
| 20260905090237 | 81 | 0 | 0.0 | 0.0 | 0.00 | 0.01 | 0.00 | 89 | 1011.2 |
| 20260905090134 | 81 | 0 | 0.0 | 0.0 | 0.00 | 0.01 | 0.00 | 89 | 1011.2 |
| 20260905090034 | 81 | 0 | 0.0 | 0.0 | 0.00 | 0.01 | 0.00 | 89 | 1011.2 |
| 20260905085931 | 81 | 0 | 0.0 | 0.0 | 0.00 | 0.01 | 0.00 | 89 | 1011.2 |
| 20260905085831 | 81 | 0 | 0.0 | 0.0 | 0.00 | 0.01 | 0.00 | 89 | 1011.2 |
| 20260905085731 | 81 | 0 | 0.0 | 0.0 | 0.00 | 0.01 | 0.00 | 89 | 1011.2 |
| 20260905085629 | 81 | 0 | 0.0 | 0.0 | 0.00 | 0.01 | 0.00 | 89 | 1011.2 |
| 20260905085529 | 80 | 0 | 0.0 | 0.0 | 0.00 | 0.01 | 0.00 | 89 | 1011.2 |
| 20260905085427 | 80 | 0 | 0.0 | 0.0 | 0.00 | 0.01 | 0.00 | 89 | 1011.2 |
| 20260905085328 | 80 | 0 | 0.0 | 0.0 | 0.00 | 0.01 | 0.00 | 89 | 1011.1 |
| 20260905085227 | 81 | 0 | 0.0 | 0.0 | 0.00 | 0.01 | 0.00 | 89 | 1011.1 |
| 20260905085127 | 81 | 0 | 0.0 | 0.0 | 0.00 | 0.02 | 0.00 | 89 | 1011.2 |
| 20260905085029 | 81 | 0 | 0.0 | 0.0 | 0.00 | 0.02 | 0.00 | 89 | 1011.1 |
| 20260905084929 | 81 | 0 | 0.0 | 0.0 | 0.00 | 0.02 | 0.00 | 89 | 1011.1 |
| 20260905084828 | 81 | 0 | 0.0 | 0.0 | 0.00 | 0.02 | 0.00 | 89 | 1011.1 |
| 20260905084729 | 81 | 0 | 0.0 | 0.0 | 0.00 | 0.02 | 0.00 | 89 | 1011.1 |
| 20260905084629 | 81 | 0 | 0.0 | 0.0 | 0.00 | 0.02 | 0.00 | 89 | 1011.1 |
| 20260905084528 | 81 | 0 | 0.0 | 0.0 | 0.00 | 0.02 | 0.00 | 89 | 1011.0 |
| 20260905084429 | 81 | 0 | 0.0 | 0.0 | 0.00 | 0.02 | 0.00 | 90 | 1011.0 |
| 20260905084328 | 81 | 0 | 0.0 | 0.0 | 0.00 | 0.02 | 0.00 | 90 | 1011.0 |
| 20260905084228 | 81 | 0 | 0.0 | 0.0 | 0.00 | 0.02 | 0.00 | 90 | 1011.0 |
| 20260905084127 | 81 | 0 | 0.0 | 0.0 | 0.00 | 0.02 | 0.00 | 90 | 1011.0 |
| 20260905084027 | 81 | 0 | 0.0 | 0.0 | 0.00 | 0.02 | 0.00 | 90 | 1011.0 |
| 20260905083927 | 81 | 0 | 0.0 | 0.0 | 0.00 | 0.02 | 0.00 | 90 | 1011.0 |
| 20260905083829 | 81 | 0 | 0.0 | 0.0 | 0.00 | 0.02 | 0.00 | 90 | 1010.9 |
| 20260905083730 | 80 | 0 | 0.0 | 0.0 | 0.00 | 0.02 | 0.00 | 90 | 1010.9 |
| 20260905083628 | 80 | 0 | 0.0 | 0.0 | 0.00 | 0.02 | 0.00 | 90 | 1010.9 |
| 20260905083527 | 80 | 0 | 0.0 | 0.0 | 0.00 | 0.02 | 0.00 | 90 | 1010.9 |
| 20260905083428 | 80 | 0 | 0.0 | 0.0 | 0.00 | 0.02 | 0.00 | 90 | 1010.9 |
| 20260905083330 | 80 | 0 | 0.0 | 0.0 | 0.00 | 0.02 | 0.00 | 90 | 1011.0 |
| 20260905083227 | 80 | 0 | 0.0 | 0.0 | 0.00 | 0.02 | 0.00 | 90 | 1010.9 |
| 20260905083128 | 80 | 0 | 0.0 | 0.0 | 0.00 | 0.02 | 0.00 | 90 | 1011.0 |
| 20260905083027 | 80 | 0 | 0.0 | 0.0 | 0.00 | 0.02 | 0.00 | 90 | 1010.9 |
| 20260905082929 | 80 | 0 | 0.0 | 0.0 | 0.00 | 0.02 | 0.00 | 90 | 1010.9 |
| 20260905082828 | 80 | 0 | 0.0 | 0.0 | 0.00 | 0.02 | 0.00 | 90 | 1010.9 |
| 20260905082728 | 81 | 0 | 0.0 | 0.0 | 0.00 | 0.02 | 0.00 | 89 | 1010.9 |
| 20260905082611 | 81 | 0 | 0.0 | 0.0 | 0.00 | 0.02 | 0.00 | 89 | 1010.9 |
| 20260905082505 | 81 | 0 | 0.0 | 0.0 | 0.00 | 0.02 | 0.00 | 89 | 1010.9 |
| 20260905082403 | 81 | 0 | 0.0 | 0.0 | 0.00 | 0.02 | 0.00 | 89 | 1011.0 |
| 20260905082307 | 81 | 0 | 0.0 | 0.0 | 0.00 | 0.02 | 0.00 | 89 | 1010.9 |
| 20260905082203 | 81 | 0 | 0.0 | 0.0 | 0.00 | 0.02 | 0.00 | 89 | 1011.0 |
| 20260905082103 | 81 | 0 | 0.0 | 0.0 | 0.00 | 0.02 | 0.00 | 89 | 1010.9 |
| 20260905082003 | 81 | 0 | 0.0 | 0.0 | 0.00 | 0.02 | 0.00 | 89 | 1010.9 |
| 20260905081904 | 81 | 0 | 0.0 | 0.0 | 0.00 | 0.02 | 0.00 | 89 | 1010.9 |
| 20260905081802 | 81 | 0 | 0.0 | 0.0 | 0.00 | 0.02 | 0.00 | 89 | 1011.0 |
| 20260905081702 | 81 | 0 | 0.0 | 0.0 | 0.00 | 0.02 | 0.00 | 89 | 1010.9 |
| 20260905081603 | 81 | 0 | 0.0 | 0.0 | 0.00 | 0.02 | 0.00 | 89 | 1011.0 |
| 20260905081502 | 81 | 0 | 0.0 | 0.0 | 0.00 | 0.02 | 0.00 | 89 | 1011.0 |
| 20260905081402 | 81 | 0 | 0.0 | 0.0 | 0.00 | 0.02 | 0.00 | 89 | 1010.9 |
| 20260905081303 | 81 | 0 | 0.0 | 0.0 | 0.00 | 0.02 | 0.00 | 89 | 1011.0 |
| 20260905081203 | 81 | 0 | 0.0 | 0.0 | 0.00 | 0.02 | 0.00 | 89 | 1011.0 |
| 20260905081102 | 81 | 0 | 0.0 | 0.0 | 0.00 | 0.02 | 0.00 | 89 | 1010.9 |
| 20260905081003 | 81 | 0 | 0.0 | 0.0 | 0.00 | 0.02 | 0.00 | 89 | 1011.0 |
| 20260905080903 | 81 | 0 | 0.0 | 0.0 | 0.00 | 0.02 | 0.00 | 89 | 1011.0 |
| 20260905080803 | 81 | 0 | 0.0 | 0.0 | 0.00 | 0.02 | 0.00 | 89 | 1010.9 |
| 20260905080702 | 81 | 0 | 0.0 | 0.0 | 0.00 | 0.02 | 0.00 | 89 | 1011.0 |
| 20260905080603 | 81 | 0 | 0.0 | 0.0 | 0.00 | 0.02 | 0.00 | 89 | 1011.0 |
| 20260905080505 | 81 | 0 | 0.0 | 0.0 | 0.00 | 0.02 | 0.00 | 89 | 1011.0 |
| 20260905080404 | 81 | 0 | 0.0 | 0.0 | 0.00 | 0.02 | 0.00 | 88 | 1011.0 |
| 20260905080303 | 81 | 0 | 0.0 | 0.0 | 0.00 | 0.02 | 0.00 | 88 | 1011.0 |
| 20260905080204 | 81 | 0 | 0.0 | 0.0 | 0.00 | 0.02 | 0.00 | 88 | 1011.0 |
| 20260905080002 | 81 | 0 | 0.0 | 0.0 | 0.00 | 0.02 | 0.00 | 88 | 1011.0 |
| 20260905075904 | 81 | 0 | 0.0 | 0.0 | 0.00 | 0.02 | 0.00 | 88 | 1011.0 |
| 20260905075802 | 81 | 0 | 0.0 | 0.0 | 0.00 | 0.02 | 0.00 | 88 | 1010.9 |
| 20260905075704 | 82 | 0 | 0.0 | 0.0 | 0.00 | 0.02 | 0.00 | 88 | 1010.9 |
| 20260905075604 | 82 | 0 | 0.0 | 0.0 | 0.00 | 0.02 | 0.00 | 88 | 1011.0 |
| 20260905075504 | 82 | 0 | 0.0 | 0.0 | 0.00 | 0.02 | 0.00 | 88 | 1011.1 |
| 20260905075403 | 82 | 0 | 0.0 | 0.0 | 0.00 | 0.02 | 0.00 | 88 | 1011.0 |
| 20260905075306 | 82 | 0 | 0.0 | 0.0 | 0.00 | 0.02 | 0.00 | 88 | 1011.0 |
| 20260905075203 | 82 | 0 | 0.0 | 0.0 | 0.00 | 0.02 | 0.00 | 88 | 1011.1 |
| 20260905075103 | 82 | 0 | 0.0 | 0.0 | 0.00 | 0.02 | 0.00 | 88 | 1011.2 |
| 20260905075004 | 82 | 0 | 0.0 | 0.0 | 0.00 | 0.02 | 0.00 | 88 | 1011.2 |
| 20260905074903 | 82 | 0 | 0.0 | 0.0 | 0.00 | 0.02 | 0.00 | 88 | 1011.2 |
| 20260905074803 | 82 | 0 | 0.0 | 0.0 | 0.00 | 0.02 | 0.00 | 88 | 1011.2 |
| 20260905074702 | 82 | 0 | 0.0 | 0.0 | 0.00 | 0.02 | 0.00 | 88 | 1011.2 |
| 20260905074559 | 82 | 0 | 0.0 | 0.0 | 0.00 | 0.02 | 0.00 | 88 | 1011.1 |
| 20260905074455 | 82 | 0 | 0.0 | 0.0 | 0.00 | 0.02 | 0.00 | 88 | 1011.1 |
| 20260905074354 | 82 | 0 | 0.0 | 0.0 | 0.00 | 0.02 | 0.00 | 88 | 1011.1 |
| 20260905074252 | 82 | 0 | 0.0 | 0.0 | 0.00 | 0.02 | 0.00 | 88 | 1011.1 |
| 20260905074143 | 82 | 0 | 0.0 | 0.0 | 0.00 | 0.02 | 0.00 | 88 | 1011.1 |
| 20260905074040 | 82 | 0 | 0.0 | 0.0 | 0.00 | 0.02 | 0.00 | 88 | 1011.1 |
| 20260905073938 | 82 | 0 | 0.0 | 0.0 | 0.00 | 0.02 | 0.00 | 88 | 1011.1 |
| 20260905073836 | 82 | 0 | 0.0 | 0.0 | 0.00 | 0.02 | 0.00 | 88 | 1011.1 |
| 20260905073733 | 82 | 0 | 0.0 | 0.0 | 0.00 | 0.02 | 0.00 | 88 | 1011.2 |
| 20260905073632 | 82 | 0 | 0.0 | 0.0 | 0.00 | 0.02 | 0.00 | 88 | 1011.2 |
| 20260905073531 | 82 | 0 | 0.0 | 0.0 | 0.00 | 0.02 | 0.00 | 88 | 1011.2 |
| 20260905073432 | 82 | 0 | 0.0 | 0.0 | 0.00 | 0.02 | 0.00 | 88 | 1011.3 |
| 20260905073332 | 82 | 0 | 0.0 | 0.0 | 0.00 | 0.02 | 0.00 | 88 | 1011.2 |
| 20260905073232 | 82 | 0 | 0.0 | 0.0 | 0.00 | 0.02 | 0.00 | 88 | 1011.3 |
| 20260905073130 | 82 | 0 | 0.0 | 0.0 | 0.00 | 0.02 | 0.00 | 88 | 1011.3 |
| 20260905073032 | 82 | 0 | 0.0 | 0.0 | 0.00 | 0.02 | 0.00 | 88 | 1011.3 |
| 20260905072932 | 82 | 0 | 0.0 | 0.0 | 0.00 | 0.02 | 0.00 | 88 | 1011.3 |
| 20260905072832 | 82 | 0 | 0.0 | 0.0 | 0.00 | 0.02 | 0.00 | 88 | 1011.3 |
| 20260905072733 | 82 | 0 | 0.0 | 0.0 | 0.00 | 0.02 | 0.00 | 88 | 1011.4 |
| 20260905072631 | 82 | 0 | 0.0 | 0.0 | 0.00 | 0.02 | 0.00 | 88 | 1011.4 |
| 20260905072531 | 82 | 0 | 0.0 | 0.0 | 0.00 | 0.02 | 0.00 | 88 | 1011.4 |
| 20260905072432 | 82 | 0 | 0.0 | 0.0 | 0.00 | 0.02 | 0.00 | 88 | 1011.4 |
| 20260905072332 | 82 | 0 | 0.0 | 0.0 | 0.00 | 0.02 | 0.00 | 88 | 1011.4 |
| 20260905072231 | 82 | 0 | 0.0 | 0.0 | 0.00 | 0.02 | 0.00 | 88 | 1011.4 |
| 20260905072133 | 82 | 0 | 0.0 | 0.0 | 0.00 | 0.02 | 0.00 | 88 | 1011.4 |
| 20260905072033 | 82 | 0 | 0.0 | 0.0 | 0.00 | 0.02 | 0.00 | 88 | 1011.4 |
| 20260905071931 | 82 | 0 | 0.0 | 0.0 | 0.00 | 0.02 | 0.00 | 88 | 1011.4 |
| 20260905071831 | 82 | 0 | 0.0 | 0.0 | 0.00 | 0.02 | 0.00 | 88 | 1011.5 |
| 20260905071731 | 82 | 0 | 0.0 | 0.0 | 0.00 | 0.02 | 0.00 | 88 | 1011.4 |
| 20260905071631 | 82 | 0 | 0.0 | 0.0 | 0.00 | 0.02 | 0.00 | 88 | 1011.4 |
| 20260905071532 | 82 | 0 | 0.0 | 0.0 | 0.00 | 0.02 | 0.00 | 88 | 1011.4 |
| 20260905071431 | 82 | 0 | 0.0 | 0.0 | 0.00 | 0.02 | 0.00 | 88 | 1011.5 |
| 20260905071333 | 82 | 0 | 0.0 | 0.0 | 0.00 | 0.02 | 0.00 | 88 | 1011.5 |
| 20260905071232 | 82 | 0 | 0.0 | 0.0 | 0.00 | 0.02 | 0.00 | 88 | 1011.4 |
| 20260905071131 | 82 | 0 | 0.0 | 0.0 | 0.00 | 0.02 | 0.00 | 88 | 1011.4 |
| 20260905071032 | 82 | 0 | 0.0 | 0.0 | 0.00 | 0.02 | 0.00 | 88 | 1011.5 |
| 20260905070931 | 82 | 0 | 0.0 | 0.0 | 0.00 | 0.02 | 0.00 | 88 | 1011.4 |
| 20260905070831 | 82 | 0 | 0.0 | 0.0 | 0.00 | 0.02 | 0.00 | 88 | 1011.5 |
| 20260905070731 | 82 | 0 | 0.0 | 0.0 | 0.00 | 0.02 | 0.00 | 88 | 1011.5 |
| 20260905070632 | 82 | 0 | 0.0 | 0.0 | 0.00 | 0.02 | 0.00 | 88 | 1011.5 |
| 20260905070532 | 82 | 0 | 0.0 | 0.0 | 0.00 | 0.02 | 0.00 | 88 | 1011.4 |
| 20260905070433 | 82 | 0 | 0.0 | 0.0 | 0.00 | 0.02 | 0.00 | 88 | 1011.5 |
| 20260905070332 | 82 | 0 | 0.0 | 0.0 | 0.00 | 0.02 | 0.00 | 88 | 1011.5 |
| 20260905070231 | 82 | 0 | 0.0 | 0.0 | 0.00 | 0.02 | 0.00 | 88 | 1011.5 |
| 20260905070131 | 82 | 0 | 0.0 | 0.0 | 0.00 | 0.02 | 0.00 | 88 | 1011.5 |
| 20260905070033 | 82 | 0 | 0.0 | 0.0 | 0.00 | 0.02 | 0.00 | 88 | 1011.5 |
| 20260905065933 | 82 | 0 | 0.0 | 0.0 | 0.00 | 0.02 | 0.00 | 88 | 1011.6 |
| 20260905065832 | 82 | 0 | 0.0 | 0.0 | 0.00 | 0.02 | 0.00 | 88 | 1011.5 |
| 20260905065732 | 82 | 0 | 0.0 | 0.0 | 0.00 | 0.02 | 0.00 | 88 | 1011.5 |
| 20260905065632 | 82 | 0 | 0.0 | 0.0 | 0.00 | 0.02 | 0.00 | 88 | 1011.5 |
| 20260905065532 | 82 | 0 | 0.0 | 0.0 | 0.00 | 0.02 | 0.00 | 88 | 1011.5 |
| 20260905065431 | 82 | 0 | 0.0 | 0.0 | 0.00 | 0.02 | 0.00 | 88 | 1011.6 |
| 20260905065331 | 82 | 0 | 0.0 | 0.0 | 0.00 | 0.02 | 0.00 | 88 | 1011.6 |
| 20260905065231 | 82 | 0 | 0.0 | 0.0 | 0.00 | 0.02 | 0.00 | 88 | 1011.6 |
| 20260905065131 | 82 | 0 | 0.0 | 0.0 | 0.00 | 0.02 | 0.00 | 88 | 1011.6 |
| 20260905065032 | 82 | 0 | 0.0 | 0.0 | 0.00 | 0.02 | 0.00 | 88 | 1011.6 |
| 20260905064931 | 82 | 0 | 0.0 | 0.0 | 0.00 | 0.02 | 0.00 | 88 | 1011.7 |
| 20260905064832 | 82 | 0 | 0.0 | 0.0 | 0.00 | 0.02 | 0.00 | 88 | 1011.7 |
| 20260905064731 | 82 | 0 | 0.0 | 0.0 | 0.00 | 0.02 | 0.00 | 88 | 1011.7 |
| 20260905064631 | 82 | 0 | 0.0 | 0.0 | 0.00 | 0.02 | 0.00 | 87 | 1011.7 |
| 20260905064531 | 82 | 0 | 0.0 | 0.0 | 0.00 | 0.02 | 0.00 | 87 | 1011.7 |
| 20260905064432 | 82 | 0 | 0.0 | 0.0 | 0.00 | 0.02 | 0.00 | 87 | 1011.7 |
| 20260905064324 | 82 | 0 | 0.0 | 0.0 | 0.00 | 0.02 | 0.00 | 87 | 1011.7 |
| 20260905064224 | 82 | 0 | 0.0 | 0.0 | 0.00 | 0.02 | 0.00 | 87 | 1011.7 |
| 20260905064123 | 82 | 0 | 0.0 | 0.0 | 0.00 | 0.02 | 0.00 | 87 | 1011.7 |
| 20260905064025 | 82 | 0 | 0.0 | 0.0 | 0.00 | 0.02 | 0.00 | 87 | 1011.6 |
| 20260905063924 | 82 | 0 | 0.0 | 0.0 | 0.00 | 0.02 | 0.00 | 87 | 1011.6 |
| 20260905063823 | 82 | 0 | 0.0 | 0.0 | 0.00 | 0.02 | 0.00 | 87 | 1011.7 |
| 20260905063723 | 82 | 0 | 0.0 | 0.0 | 0.00 | 0.02 | 0.00 | 87 | 1011.6 |
| 20260905063623 | 82 | 0 | 0.0 | 0.0 | 0.00 | 0.02 | 0.00 | 87 | 1011.7 |
| 20260905063523 | 82 | 0 | 0.0 | 0.0 | 0.00 | 0.02 | 0.00 | 87 | 1011.6 |
| 20260905063422 | 82 | 0 | 0.0 | 0.0 | 0.00 | 0.02 | 0.00 | 87 | 1011.7 |
| 20260905063324 | 82 | 0 | 0.0 | 0.0 | 0.00 | 0.02 | 0.00 | 87 | 1011.7 |
| 20260905063222 | 82 | 0 | 0.0 | 0.0 | 0.00 | 0.02 | 0.00 | 87 | 1011.7 |
| 20260905063124 | 82 | 0 | 0.0 | 0.0 | 0.00 | 0.02 | 0.00 | 87 | 1011.7 |
| 20260905063023 | 82 | 0 | 0.0 | 0.0 | 0.00 | 0.02 | 0.00 | 87 | 1011.7 |
| 20260905062924 | 82 | 0 | 0.0 | 0.0 | 0.00 | 0.02 | 0.00 | 87 | 1011.7 |
| 20260905062822 | 82 | 0 | 0.0 | 0.0 | 0.00 | 0.02 | 0.00 | 87 | 1011.7 |
| 20260905062723 | 82 | 0 | 0.0 | 0.0 | 0.00 | 0.02 | 0.00 | 87 | 1011.8 |
| 20260905062624 | 82 | 0 | 0.0 | 0.0 | 0.00 | 0.02 | 0.00 | 87 | 1011.7 |
| 20260905062523 | 82 | 0 | 0.0 | 0.0 | 0.00 | 0.02 | 0.00 | 87 | 1011.7 |
| 20260905062423 | 82 | 0 | 0.0 | 0.0 | 0.00 | 0.02 | 0.00 | 87 | 1011.8 |
| 20260905062323 | 82 | 0 | 0.0 | 0.0 | 0.00 | 0.02 | 0.00 | 87 | 1011.7 |
| 20260905062222 | 82 | 0 | 0.0 | 0.0 | 0.00 | 0.02 | 0.00 | 87 | 1011.8 |
| 20260905062122 | 82 | 0 | 0.0 | 0.0 | 0.00 | 0.02 | 0.00 | 87 | 1011.9 |
| 20260905062022 | 82 | 0 | 0.0 | 0.0 | 0.00 | 0.02 | 0.00 | 87 | 1011.9 |
| 20260905061922 | 82 | 0 | 0.0 | 0.0 | 0.00 | 0.02 | 0.00 | 87 | 1011.9 |
| 20260905061824 | 82 | 0 | 0.0 | 0.0 | 0.00 | 0.02 | 0.00 | 87 | 1011.9 |
| 20260905061722 | 82 | 0 | 0.0 | 0.0 | 0.00 | 0.02 | 0.00 | 87 | 1011.9 |
| 20260905061623 | 82 | 0 | 0.0 | 0.0 | 0.00 | 0.02 | 0.00 | 87 | 1012.0 |
| 20260905061522 | 82 | 0 | 0.0 | 0.0 | 0.00 | 0.02 | 0.00 | 87 | 1011.9 |
| 20260905061423 | 82 | 0 | 0.0 | 0.0 | 0.00 | 0.02 | 0.00 | 87 | 1011.9 |
| 20260905061323 | 82 | 0 | 0.0 | 0.0 | 0.00 | 0.02 | 0.00 | 87 | 1011.9 |
| 20260905061223 | 82 | 0 | 0.0 | 0.0 | 0.00 | 0.02 | 0.00 | 87 | 1011.9 |
| 20260905061121 | 82 | 0 | 0.0 | 0.0 | 0.00 | 0.02 | 0.00 | 87 | 1011.9 |
| 20260905061022 | 82 | 0 | 0.0 | 0.0 | 0.00 | 0.02 | 0.00 | 87 | 1011.9 |
| 20260905060923 | 82 | 0 | 0.0 | 0.0 | 0.00 | 0.02 | 0.00 | 87 | 1011.9 |
| 20260905060823 | 82 | 0 | 0.0 | 0.0 | 0.00 | 0.02 | 0.00 | 87 | 1011.9 |
| 20260905060722 | 82 | 0 | 0.0 | 0.0 | 0.00 | 0.02 | 0.00 | 87 | 1011.9 |
| 20260905060623 | 82 | 0 | 0.0 | 0.0 | 0.00 | 0.02 | 0.00 | 87 | 1011.9 |
| 20260905060523 | 82 | 0 | 0.0 | 0.0 | 0.00 | 0.02 | 0.00 | 87 | 1011.8 |
| 20260905060422 | 82 | 0 | 0.0 | 0.0 | 0.00 | 0.02 | 0.00 | 87 | 1011.8 |
| 20260905060321 | 82 | 0 | 0.0 | 0.0 | 0.00 | 0.02 | 0.00 | 87 | 1011.9 |
| 20260905060224 | 82 | 0 | 0.0 | 0.0 | 0.00 | 0.02 | 0.00 | 87 | 1011.9 |
| 20260905060123 | 82 | 0 | 0.0 | 0.0 | 0.00 | 0.02 | 0.00 | 87 | 1011.8 |
| 20260905060021 | 82 | 0 | 0.0 | 0.0 | 0.00 | 0.02 | 0.00 | 87 | 1011.8 |
| 20260905055922 | 82 | 0 | 0.0 | 0.0 | 0.00 | 0.02 | 0.00 | 87 | 1011.8 |
| 20260905055823 | 82 | 0 | 0.0 | 0.0 | 0.00 | 0.02 | 0.00 | 87 | 1011.8 |
| 20260905055723 | 82 | 0 | 0.0 | 0.0 | 0.00 | 0.02 | 0.00 | 87 | 1011.8 |
| 20260905055622 | 82 | 0 | 0.0 | 0.0 | 0.00 | 0.02 | 0.00 | 87 | 1011.8 |
| 20260905055523 | 82 | 0 | 0.0 | 0.0 | 0.00 | 0.02 | 0.00 | 87 | 1011.9 |
| 20260905055422 | 82 | 0 | 0.0 | 0.0 | 0.00 | 0.02 | 0.00 | 87 | 1011.9 |
| 20260905055323 | 82 | 0 | 0.0 | 0.0 | 0.00 | 0.02 | 0.00 | 87 | 1011.8 |
| 20260905055223 | 82 | 0 | 0.0 | 0.0 | 0.00 | 0.02 | 0.00 | 87 | 1011.8 |
| 20260905055121 | 82 | 0 | 0.0 | 0.0 | 0.00 | 0.02 | 0.00 | 87 | 1011.8 |
| 20260905055022 | 82 | 0 | 0.0 | 0.0 | 0.00 | 0.02 | 0.00 | 86 | 1011.8 |
| 20260905054923 | 82 | 0 | 0.0 | 0.0 | 0.00 | 0.02 | 0.00 | 86 | 1011.8 |
| 20260905054823 | 82 | 0 | 0.0 | 0.0 | 0.00 | 0.02 | 0.00 | 86 | 1011.8 |
| 20260905054721 | 82 | 0 | 0.0 | 0.0 | 0.00 | 0.02 | 0.00 | 86 | 1011.8 |
| 20260905054623 | 82 | 0 | 0.0 | 0.0 | 0.00 | 0.02 | 0.00 | 86 | 1011.8 |
| 20260905054523 | 82 | 0 | 0.0 | 0.0 | 0.00 | 0.02 | 0.00 | 86 | 1011.8 |
| 20260905054423 | 82 | 0 | 0.0 | 0.0 | 0.00 | 0.02 | 0.00 | 86 | 1011.8 |
| 20260905054321 | 82 | 0 | 0.0 | 0.0 | 0.00 | 0.02 | 0.00 | 86 | 1011.9 |
| 20260905054221 | 83 | 0 | 0.0 | 0.0 | 0.00 | 0.02 | 0.00 | 86 | 1011.9 |
| 20260905054122 | 83 | 0 | 0.0 | 2.0 | 0.00 | 0.02 | 0.00 | 86 | 1011.9 |
| 20260905054022 | 83 | 0 | 0.0 | 3.0 | 0.00 | 0.02 | 0.00 | 86 | 1011.9 |
| 20260905053922 | 83 | 0 | 0.0 | 3.0 | 0.00 | 0.02 | 0.00 | 86 | 1011.9 |
| 20260905053822 | 83 | 0 | 0.0 | 3.0 | 0.00 | 0.02 | 0.00 | 86 | 1011.9 |
| 20260905053723 | 83 | 0 | 0.0 | 4.0 | 0.00 | 0.02 | 0.00 | 86 | 1011.9 |
| 20260905053621 | 83 | 0 | 0.0 | 4.0 | 0.00 | 0.02 | 0.00 | 86 | 1012.0 |
| 20260905053521 | 83 | 0 | 0.0 | 4.0 | 0.00 | 0.02 | 0.00 | 86 | 1011.9 |
| 20260905053422 | 83 | 0 | 0.0 | 5.0 | 0.00 | 0.02 | 0.00 | 86 | 1011.9 |
| 20260905053323 | 83 | 0 | 0.0 | 5.0 | 0.00 | 0.02 | 0.00 | 86 | 1012.0 |
| 20260905053221 | 83 | 0 | 1.0 | 5.0 | 0.00 | 0.02 | 0.00 | 86 | 1011.9 |
| 20260905053121 | 83 | 0 | 2.0 | 5.0 | 0.00 | 0.02 | 0.00 | 86 | 1011.9 |
| 20260905053021 | 83 | 0 | 1.0 | 5.0 | 0.00 | 0.02 | 0.00 | 86 | 1011.9 |
| 20260905052922 | 83 | 0 | 2.0 | 5.0 | 0.00 | 0.02 | 0.00 | 86 | 1011.9 |
| 20260905052823 | 83 | 0 | 3.0 | 5.0 | 0.00 | 0.02 | 0.00 | 85 | 1011.9 |
| 20260905052722 | 83 | 0 | 3.0 | 5.0 | 0.00 | 0.02 | 0.00 | 85 | 1012.0 |
| 20260905052622 | 83 | 0 | 3.0 | 5.0 | 0.00 | 0.02 | 0.00 | 85 | 1011.9 |
| 20260905052521 | 83 | 0 | 3.0 | 5.0 | 0.00 | 0.02 | 0.00 | 85 | 1011.9 |
| 20260905052422 | 83 | 0 | 3.0 | 5.0 | 0.00 | 0.02 | 0.00 | 85 | 1011.9 |
| 20260905052321 | 83 | 0 | 3.0 | 5.0 | 0.00 | 0.02 | 0.00 | 85 | 1011.9 |
| 20260905052222 | 83 | 0 | 4.0 | 5.0 | 0.00 | 0.02 | 0.00 | 85 | 1011.9 |
| 20260905052123 | 83 | 0 | 2.0 | 5.0 | 0.00 | 0.02 | 0.00 | 85 | 1011.9 |
| 20260905052021 | 83 | 0 | 0.0 | 4.0 | 0.00 | 0.02 | 0.00 | 85 | 1011.9 |
| 20260905051921 | 83 | 0 | 0.0 | 0.0 | 0.00 | 0.02 | 0.00 | 85 | 1012.0 |
| 20260905051821 | 83 | 0 | 0.0 | 0.0 | 0.00 | 0.02 | 0.00 | 86 | 1012.0 |
| 20260905051722 | 83 | 0 | 0.0 | 0.0 | 0.00 | 0.02 | 0.00 | 86 | 1012.0 |
| 20260905051621 | 83 | 0 | 0.0 | 0.0 | 0.00 | 0.02 | 0.00 | 85 | 1012.0 |
| 20260905051522 | 83 | 0 | 0.0 | 0.0 | 0.00 | 0.02 | 0.00 | 85 | 1012.0 |
| 20260905051421 | 83 | 0 | 0.0 | 0.0 | 0.00 | 0.02 | 0.00 | 85 | 1012.1 |
| 20260905051321 | 83 | 0 | 0.0 | 0.0 | 0.00 | 0.02 | 0.00 | 85 | 1012.0 |
| 20260905051205 | 83 | 0 | 0.0 | 0.0 | 0.00 | 0.02 | 0.00 | 85 | 1012.1 |
| 20260905051105 | 83 | 0 | 0.0 | 0.0 | 0.00 | 0.02 | 0.00 | 85 | 1012.0 |
| 20260905051005 | 83 | 0 | 0.0 | 0.0 | 0.00 | 0.02 | 0.00 | 85 | 1012.0 |
| 20260905050903 | 83 | 0 | 0.0 | 0.0 | 0.00 | 0.02 | 0.00 | 85 | 1012.1 |
| 20260905050803 | 83 | 0 | 0.0 | 0.0 | 0.00 | 0.02 | 0.00 | 85 | 1012.0 |
| 20260905050703 | 83 | 0 | 0.0 | 0.0 | 0.00 | 0.02 | 0.00 | 85 | 1012.0 |
| 20260905050603 | 83 | 0 | 0.0 | 0.0 | 0.00 | 0.02 | 0.00 | 85 | 1012.0 |
| 20260905050450 | 83 | 0 | 0.0 | 0.0 | 0.00 | 0.02 | 0.00 | 85 | 1012.0 |
| 20260905050336 | 83 | 0 | 0.0 | 0.0 | 0.00 | 0.02 | 0.00 | 85 | 1012.0 |
| 20260905050235 | 83 | 0 | 0.0 | 0.0 | 0.00 | 0.02 | 0.00 | 85 | 1012.0 |
| 20260905050133 | 83 | 0 | 0.0 | 0.0 | 0.00 | 0.02 | 0.00 | 85 | 1012.0 |
| 20260905050033 | 83 | 0 | 0.0 | 0.0 | 0.00 | 0.02 | 0.00 | 85 | 1012.0 |
| 20260905045933 | 83 | 0 | 0.0 | 0.0 | 0.00 | 0.02 | 0.02 | 85 | 1012.0 |
| 20260905045832 | 83 | 0 | 0.0 | 0.0 | 0.00 | 0.02 | 0.02 | 85 | 1012.0 |
| 20260905045730 | 83 | 0 | 0.0 | 0.0 | 0.00 | 0.02 | 0.02 | 85 | 1012.0 |
| 20260905045631 | 83 | 0 | 0.0 | 0.0 | 0.00 | 0.02 | 0.02 | 85 | 1012.0 |
| 20260905045532 | 83 | 0 | 0.0 | 0.0 | 0.00 | 0.02 | 0.02 | 85 | 1012.0 |
| 20260905045432 | 83 | 0 | 0.0 | 0.0 | 0.00 | 0.02 | 0.02 | 85 | 1011.9 |
| 20260905045333 | 83 | 0 | 0.0 | 0.0 | 0.00 | 0.02 | 0.02 | 85 | 1012.0 |
| 20260905045233 | 83 | 0 | 0.0 | 0.0 | 0.00 | 0.02 | 0.02 | 85 | 1011.9 |
| 20260905045133 | 83 | 0 | 0.0 | 0.0 | 0.00 | 0.02 | 0.02 | 85 | 1011.9 |
| 20260905045030 | 83 | 0 | 0.0 | 0.0 | 0.00 | 0.02 | 0.02 | 85 | 1011.9 |
| 20260905044930 | 83 | 0 | 0.0 | 0.0 | 0.00 | 0.02 | 0.02 | 85 | 1011.8 |
| 20260905044832 | 83 | 0 | 0.0 | 0.0 | 0.00 | 0.02 | 0.02 | 85 | 1011.9 |
| 20260905044731 | 83 | 0 | 0.0 | 0.0 | 0.00 | 0.02 | 0.02 | 85 | 1011.9 |
| 20260905044632 | 83 | 0 | 0.0 | 0.0 | 0.00 | 0.02 | 0.02 | 85 | 1011.9 |
| 20260905044532 | 83 | 0 | 0.0 | 0.0 | 0.00 | 0.02 | 0.02 | 85 | 1011.9 |
| 20260905044433 | 83 | 0 | 0.0 | 0.0 | 0.00 | 0.02 | 0.02 | 85 | 1012.0 |
| 20260905044332 | 83 | 0 | 0.0 | 0.0 | 0.00 | 0.02 | 0.02 | 85 | 1012.0 |
| 20260905044232 | 83 | 0 | 0.0 | 0.0 | 0.00 | 0.02 | 0.02 | 85 | 1011.9 |
| 20260905044131 | 83 | 0 | 0.0 | 0.0 | 0.00 | 0.02 | 0.02 | 85 | 1011.9 |
| 20260905044032 | 83 | 0 | 0.0 | 2.0 | 0.00 | 0.02 | 0.02 | 85 | 1011.9 |
| 20260905043931 | 83 | 0 | 0.0 | 2.0 | 0.00 | 0.02 | 0.02 | 85 | 1011.9 |
| 20260905043832 | 83 | 0 | 0.0 | 2.0 | 0.00 | 0.02 | 0.02 | 85 | 1011.9 |
| 20260905043731 | 83 | 0 | 0.0 | 2.0 | 0.00 | 0.02 | 0.02 | 85 | 1011.9 |
| 20260905043632 | 83 | 0 | 0.0 | 2.0 | 0.00 | 0.02 | 0.02 | 85 | 1011.9 |
| 20260905043532 | 83 | 0 | 0.0 | 2.0 | 0.00 | 0.02 | 0.02 | 85 | 1011.9 |
| 20260905043432 | 83 | 0 | 0.0 | 2.0 | 0.00 | 0.02 | 0.02 | 85 | 1012.0 |
| 20260905043332 | 83 | 0 | 0.0 | 2.0 | 0.00 | 0.02 | 0.02 | 85 | 1012.0 |
| 20260905043233 | 83 | 0 | 0.0 | 2.0 | 0.00 | 0.02 | 0.02 | 85 | 1012.0 |
| 20260905043132 | 83 | 0 | 0.0 | 2.0 | 0.00 | 0.02 | 0.02 | 85 | 1012.0 |
| 20260905043032 | 83 | 0 | 1.0 | 2.0 | 0.00 | 0.02 | 0.02 | 85 | 1012.0 |
| 20260905042932 | 83 | 0 | 1.0 | 2.0 | 0.00 | 0.02 | 0.02 | 85 | 1011.9 |
| 20260905042832 | 84 | 0 | 1.0 | 2.0 | 0.00 | 0.02 | 0.02 | 84 | 1012.0 |
| 20260905042733 | 84 | 0 | 1.0 | 3.0 | 0.00 | 0.02 | 0.02 | 84 | 1012.0 |
| 20260905042632 | 84 | 0 | 1.0 | 3.0 | 0.00 | 0.02 | 0.02 | 84 | 1011.8 |
| 20260905042532 | 84 | 0 | 1.0 | 3.0 | 0.00 | 0.02 | 0.02 | 84 | 1012.0 |
| 20260905042432 | 84 | 0 | 1.0 | 3.0 | 0.00 | 0.02 | 0.02 | 84 | 1012.0 |
| 20260905042333 | 84 | 0 | 1.0 | 4.0 | 0.00 | 0.02 | 0.02 | 84 | 1012.0 |
| 20260905042232 | 84 | 0 | 1.0 | 5.0 | 0.00 | 0.02 | 0.02 | 84 | 1012.0 |
| 20260905042132 | 84 | 0 | 1.0 | 5.0 | 0.00 | 0.02 | 0.02 | 84 | 1012.0 |
| 20260905042030 | 84 | 0 | 1.0 | 5.0 | 0.00 | 0.02 | 0.02 | 85 | 1011.9 |
| 20260905041932 | 84 | 0 | 1.0 | 5.0 | 0.00 | 0.02 | 0.02 | 84 | 1012.0 |
| 20260905041832 | 84 | 0 | 1.0 | 5.0 | 0.00 | 0.02 | 0.02 | 84 | 1012.0 |
| 20260905041731 | 84 | 0 | 0.0 | 5.0 | 0.00 | 0.02 | 0.02 | 84 | 1012.1 |
| 20260905041631 | 84 | 0 | 1.0 | 5.0 | 0.00 | 0.02 | 0.02 | 84 | 1012.0 |
| 20260905041518 | 84 | 0 | 2.0 | 5.0 | 0.00 | 0.02 | 0.02 | 84 | 1012.1 |
| 20260905041419 | 84 | 0 | 3.0 | 5.0 | 0.00 | 0.02 | 0.02 | 84 | 1012.0 |
| 20260905041318 | 84 | 0 | 3.0 | 5.0 | 0.00 | 0.02 | 0.02 | 84 | 1012.1 |
| 20260905041218 | 84 | 0 | 4.0 | 5.0 | 0.00 | 0.02 | 0.02 | 84 | 1012.1 |
| 20260905041118 | 84 | 0 | 2.0 | 3.0 | 0.00 | 0.02 | 0.02 | 84 | 1012.0 |
| 20260905041019 | 84 | 0 | 2.0 | 3.0 | 0.00 | 0.02 | 0.02 | 84 | 1012.0 |
| 20260905040919 | 84 | 0 | 2.0 | 3.0 | 0.00 | 0.02 | 0.02 | 84 | 1012.1 |
| 20260905040818 | 84 | 0 | 2.0 | 3.0 | 0.00 | 0.02 | 0.02 | 84 | 1012.1 |
| 20260905040707 | 84 | 0 | 2.0 | 3.0 | 0.00 | 0.02 | 0.02 | 84 | 1012.1 |
| 20260905040604 | 84 | 0 | 2.0 | 3.0 | 0.00 | 0.02 | 0.02 | 84 | 1012.1 |
| 20260905040504 | 84 | 0 | 1.0 | 3.0 | 0.00 | 0.02 | 0.02 | 84 | 1012.1 |
| 20260905040404 | 84 | 0 | 0.0 | 2.0 | 0.00 | 0.02 | 0.02 | 84 | 1012.1 |
| 20260905040302 | 84 | 0 | 0.0 | 2.0 | 0.00 | 0.02 | 0.02 | 84 | 1012.1 |
| 20260905040202 | 84 | 0 | 0.0 | 2.0 | 0.00 | 0.02 | 0.02 | 84 | 1012.2 |
| 20260905040104 | 84 | 0 | 0.0 | 2.0 | 0.00 | 0.02 | 0.02 | 84 | 1012.2 |
| 20260905040004 | 84 | 0 | 0.0 | 2.0 | 0.00 | 0.02 | 0.02 | 84 | 1012.2 |
| 20260905035903 | 84 | 0 | 0.0 | 2.0 | 0.00 | 0.02 | 0.02 | 84 | 1012.3 |
| 20260905035802 | 84 | 0 | 0.0 | 2.0 | 0.00 | 0.02 | 0.02 | 84 | 1012.2 |
| 20260905035703 | 84 | 0 | 0.0 | 3.0 | 0.00 | 0.02 | 0.02 | 84 | 1012.2 |
| 20260905035604 | 84 | 0 | 0.0 | 3.0 | 0.00 | 0.02 | 0.02 | 84 | 1012.2 |
| 20260905035504 | 84 | 0 | 0.0 | 3.0 | 0.00 | 0.02 | 0.02 | 84 | 1012.3 |
| 20260905035402 | 84 | 0 | 0.0 | 3.0 | 0.00 | 0.02 | 0.02 | 83 | 1012.3 |
| 20260905035306 | 84 | 0 | 2.0 | 3.0 | 0.00 | 0.02 | 0.02 | 83 | 1012.2 |
| 20260905035203 | 84 | 0 | 2.0 | 3.0 | 0.00 | 0.02 | 0.02 | 83 | 1012.3 |
| 20260905035104 | 84 | 0 | 2.0 | 5.0 | 0.00 | 0.02 | 0.02 | 83 | 1012.2 |
| 20260905035004 | 84 | 0 | 2.0 | 5.0 | 0.00 | 0.02 | 0.02 | 83 | 1012.2 |
| 20260905034903 | 84 | 0 | 2.0 | 5.0 | 0.00 | 0.02 | 0.02 | 83 | 1012.2 |
| 20260905034803 | 84 | 0 | 2.0 | 5.0 | 0.00 | 0.02 | 0.02 | 83 | 1012.2 |
| 20260905034703 | 84 | 0 | 2.0 | 5.0 | 0.00 | 0.02 | 0.02 | 83 | 1012.3 |
| 20260905034602 | 84 | 0 | 0.0 | 5.0 | 0.00 | 0.02 | 0.02 | 83 | 1012.2 |
| 20260905034502 | 84 | 0 | 1.0 | 5.0 | 0.00 | 0.02 | 0.02 | 83 | 1012.3 |
| 20260905034403 | 84 | 0 | 2.0 | 5.0 | 0.00 | 0.02 | 0.02 | 83 | 1012.3 |
| 20260905034305 | 84 | 0 | 2.0 | 5.0 | 0.00 | 0.02 | 0.02 | 83 | 1012.3 |
| 20260905034204 | 84 | 0 | 1.0 | 5.0 | 0.00 | 0.02 | 0.02 | 83 | 1012.3 |
| 20260905034102 | 84 | 0 | 0.0 | 0.0 | 0.00 | 0.02 | 0.02 | 83 | 1012.3 |
| 20260905034002 | 84 | 0 | 0.0 | 0.0 | 0.00 | 0.02 | 0.02 | 83 | 1012.2 |
| 20260905033903 | 84 | 0 | 0.0 | 0.0 | 0.00 | 0.02 | 0.02 | 83 | 1012.2 |
| 20260905033804 | 84 | 0 | 0.0 | 2.0 | 0.00 | 0.02 | 0.02 | 83 | 1012.3 |
| 20260905033704 | 84 | 0 | 0.0 | 2.0 | 0.00 | 0.02 | 0.02 | 83 | 1012.2 |
| 20260905033603 | 84 | 0 | 0.0 | 2.0 | 0.00 | 0.02 | 0.02 | 83 | 1012.2 |
| 20260905033503 | 84 | 0 | 0.0 | 3.0 | 0.00 | 0.02 | 0.02 | 83 | 1012.1 |
| 20260905033403 | 84 | 0 | 0.0 | 4.0 | 0.00 | 0.02 | 0.02 | 83 | 1012.2 |
| 20260905033304 | 84 | 0 | 0.0 | 4.0 | 0.00 | 0.02 | 0.02 | 83 | 1012.2 |
| 20260905033203 | 84 | 0 | 0.0 | 4.0 | 0.00 | 0.02 | 0.02 | 83 | 1012.3 |
| 20260905033103 | 84 | 0 | 0.0 | 4.0 | 0.00 | 0.02 | 0.02 | 83 | 1012.2 |
| 20260905033004 | 84 | 0 | 0.0 | 4.0 | 0.00 | 0.02 | 0.02 | 83 | 1012.1 |
| 20260905032903 | 84 | 0 | 0.0 | 4.0 | 0.00 | 0.02 | 0.02 | 83 | 1012.2 |
| 20260905032802 | 84 | 0 | 0.0 | 4.0 | 0.00 | 0.02 | 0.02 | 83 | 1012.3 |
| 20260905032703 | 84 | 0 | 1.0 | 4.0 | 0.00 | 0.02 | 0.02 | 83 | 1012.2 |
| 20260905032604 | 84 | 0 | 2.0 | 5.0 | 0.00 | 0.02 | 0.02 | 83 | 1012.2 |
| 20260905032503 | 84 | 0 | 2.0 | 5.0 | 0.00 | 0.02 | 0.02 | 83 | 1012.2 |
| 20260905032403 | 85 | 0 | 2.0 | 5.0 | 0.00 | 0.02 | 0.02 | 83 | 1012.3 |
| 20260905032306 | 85 | 0 | 1.0 | 5.0 | 0.00 | 0.02 | 0.02 | 83 | 1012.2 |
| 20260905032203 | 85 | 0 | 0.0 | 5.0 | 0.00 | 0.02 | 0.02 | 83 | 1012.3 |
| 20260905032103 | 85 | 0 | 2.0 | 5.0 | 0.00 | 0.02 | 0.02 | 82 | 1012.3 |
| 20260905032004 | 85 | 0 | 2.0 | 5.0 | 0.00 | 0.02 | 0.02 | 82 | 1012.3 |
| 20260905031903 | 85 | 0 | 2.0 | 5.0 | 0.00 | 0.02 | 0.02 | 82 | 1012.3 |
| 20260905031804 | 85 | 0 | 2.0 | 5.0 | 0.00 | 0.02 | 0.02 | 82 | 1012.4 |
| 20260905031650 | 85 | 0 | 2.0 | 5.0 | 0.00 | 0.02 | 0.02 | 82 | 1012.4 |
| 20260905031549 | 85 | 0 | 1.0 | 5.0 | 0.00 | 0.02 | 0.02 | 82 | 1012.3 |
| 20260905031449 | 85 | 0 | 2.0 | 5.0 | 0.00 | 0.02 | 0.02 | 82 | 1012.4 |
| 20260905031345 | 85 | 0 | 3.0 | 5.0 | 0.00 | 0.02 | 0.02 | 82 | 1012.4 |
| 20260905031239 | 85 | 0 | 3.0 | 5.0 | 0.00 | 0.02 | 0.02 | 82 | 1012.4 |
| 20260905031137 | 85 | 0 | 2.0 | 5.0 | 0.00 | 0.02 | 0.02 | 82 | 1012.4 |
| 20260905031036 | 85 | 0 | 1.0 | 5.0 | 0.00 | 0.02 | 0.02 | 82 | 1012.4 |
| 20260905030936 | 85 | 0 | 1.0 | 5.0 | 0.00 | 0.02 | 0.02 | 82 | 1012.4 |
| 20260905030833 | 85 | 0 | 2.0 | 5.0 | 0.00 | 0.02 | 0.02 | 82 | 1012.4 |
| 20260905030732 | 85 | 0 | 2.0 | 5.0 | 0.00 | 0.02 | 0.02 | 82 | 1012.3 |
| 20260905030631 | 85 | 0 | 2.0 | 5.0 | 0.00 | 0.02 | 0.02 | 82 | 1012.3 |
| 20260905030532 | 85 | 0 | 2.0 | 5.0 | 0.00 | 0.02 | 0.02 | 82 | 1012.3 |
| 20260905030432 | 85 | 0 | 2.0 | 5.0 | 0.00 | 0.02 | 0.02 | 82 | 1012.2 |
| 20260905030332 | 85 | 0 | 2.0 | 5.0 | 0.00 | 0.02 | 0.02 | 82 | 1012.2 |
| 20260905030232 | 85 | 0 | 1.0 | 4.0 | 0.00 | 0.02 | 0.02 | 82 | 1012.2 |
| 20260905030131 | 85 | 0 | 0.0 | 4.0 | 0.00 | 0.02 | 0.02 | 82 | 1012.2 |
| 20260905030033 | 85 | 0 | 0.0 | 4.0 | 0.00 | 0.02 | 0.02 | 82 | 1012.2 |
| 20260905025931 | 85 | 0 | 1.0 | 5.0 | 0.00 | 0.02 | 0.02 | 82 | 1012.2 |
| 20260905025831 | 85 | 0 | 1.0 | 5.0 | 0.00 | 0.02 | 0.02 | 82 | 1012.2 |
| 20260905025733 | 85 | 0 | 1.0 | 5.0 | 0.00 | 0.02 | 0.02 | 82 | 1012.2 |
| 20260905025631 | 85 | 0 | 2.0 | 5.0 | 0.00 | 0.02 | 0.02 | 81 | 1012.2 |
| 20260905025531 | 85 | 0 | 3.0 | 5.0 | 0.00 | 0.02 | 0.02 | 81 | 1012.1 |
| 20260905025432 | 85 | 0 | 2.0 | 5.0 | 0.00 | 0.02 | 0.02 | 81 | 1012.1 |
| 20260905025332 | 85 | 0 | 2.0 | 5.0 | 0.00 | 0.02 | 0.02 | 81 | 1012.2 |
| 20260905025231 | 85 | 0 | 2.0 | 5.0 | 0.00 | 0.02 | 0.02 | 81 | 1012.2 |
| 20260905025132 | 85 | 0 | 2.0 | 5.0 | 0.00 | 0.02 | 0.02 | 81 | 1012.2 |
| 20260905025032 | 85 | 0 | 2.0 | 5.0 | 0.00 | 0.02 | 0.02 | 81 | 1012.2 |
| 20260905024932 | 85 | 0 | 0.0 | 0.0 | 0.00 | 0.02 | 0.02 | 81 | 1012.2 |
| 20260905024831 | 85 | 0 | 0.0 | 0.0 | 0.00 | 0.02 | 0.02 | 81 | 1012.2 |
| 20260905024732 | 85 | 0 | 0.0 | 0.0 | 0.00 | 0.02 | 0.02 | 81 | 1012.2 |
| 20260905024631 | 85 | 0 | 0.0 | 2.0 | 0.00 | 0.02 | 0.02 | 81 | 1012.2 |
| 20260905024532 | 85 | 0 | 0.0 | 5.0 | 0.00 | 0.02 | 0.02 | 81 | 1012.2 |
| 20260905024431 | 85 | 0 | 0.0 | 5.0 | 0.00 | 0.02 | 0.02 | 81 | 1012.2 |
| 20260905024331 | 85 | 0 | 0.0 | 5.0 | 0.00 | 0.02 | 0.02 | 81 | 1012.2 |
| 20260905024232 | 85 | 0 | 0.0 | 5.0 | 0.00 | 0.02 | 0.02 | 81 | 1012.2 |
| 20260905024132 | 85 | 0 | 0.0 | 5.0 | 0.00 | 0.02 | 0.02 | 81 | 1012.1 |
| 20260905024032 | 85 | 0 | 0.0 | 5.0 | 0.00 | 0.02 | 0.02 | 80 | 1012.2 |
| 20260905023925 | 85 | 0 | 0.0 | 5.0 | 0.00 | 0.02 | 0.02 | 80 | 1012.1 |
| 20260905023824 | 85 | 0 | 1.0 | 5.0 | 0.00 | 0.02 | 0.02 | 81 | 1012.1 |
| 20260905023716 | 85 | 0 | 2.0 | 5.0 | 0.00 | 0.02 | 0.02 | 80 | 1012.1 |
| 20260905023613 | 85 | 0 | 1.0 | 3.0 | 0.00 | 0.02 | 0.02 | 80 | 1012.0 |
| 20260905023504 | 85 | 0 | 0.0 | 0.0 | 0.00 | 0.02 | 0.02 | 80 | 1012.0 |
| 20260905023404 | 85 | 0 | 0.0 | 0.0 | 0.00 | 0.02 | 0.02 | 80 | 1012.0 |
| 20260905023303 | 85 | 0 | 0.0 | 0.0 | 0.00 | 0.02 | 0.02 | 80 | 1012.0 |
| 20260905023202 | 85 | 0 | 0.0 | 0.0 | 0.00 | 0.02 | 0.02 | 80 | 1012.1 |
| 20260905023103 | 85 | 0 | 0.0 | 0.0 | 0.00 | 0.02 | 0.02 | 80 | 1012.0 |
| 20260905023003 | 85 | 0 | 0.0 | 3.0 | 0.00 | 0.02 | 0.02 | 80 | 1012.0 |
| 20260905022902 | 85 | 0 | 0.0 | 4.0 | 0.00 | 0.02 | 0.02 | 80 | 1012.0 |
| 20260905022804 | 85 | 0 | 0.0 | 5.0 | 0.00 | 0.02 | 0.02 | 80 | 1011.9 |
| 20260905022702 | 85 | 0 | 0.0 | 5.0 | 0.00 | 0.02 | 0.02 | 80 | 1012.0 |
| 20260905022602 | 85 | 0 | 0.0 | 5.0 | 0.00 | 0.02 | 0.02 | 80 | 1011.9 |
| 20260905022503 | 85 | 0 | 0.0 | 5.0 | 0.00 | 0.02 | 0.02 | 80 | 1011.9 |
| 20260905022403 | 85 | 0 | 0.0 | 5.0 | 0.00 | 0.02 | 0.02 | 80 | 1011.9 |
| 20260905022306 | 85 | 0 | 0.0 | 5.0 | 0.00 | 0.02 | 0.02 | 80 | 1011.9 |
| 20260905022203 | 85 | 0 | 2.0 | 5.0 | 0.00 | 0.02 | 0.02 | 81 | 1011.9 |
| 20260905022103 | 85 | 0 | 2.0 | 5.0 | 0.00 | 0.02 | 0.02 | 81 | 1011.8 |
| 20260905022004 | 85 | 0 | 3.0 | 5.0 | 0.00 | 0.02 | 0.02 | 81 | 1011.8 |
| 20260905021903 | 85 | 0 | 3.0 | 5.0 | 0.00 | 0.02 | 0.02 | 81 | 1011.8 |
| 20260905021803 | 85 | 0 | 1.0 | 4.0 | 0.00 | 0.02 | 0.02 | 81 | 1011.8 |
| 20260905021704 | 85 | 0 | 1.0 | 4.0 | 0.00 | 0.02 | 0.02 | 81 | 1011.8 |
| 20260905021604 | 85 | 0 | 1.0 | 4.0 | 0.00 | 0.02 | 0.02 | 81 | 1011.9 |
| 20260905021505 | 85 | 0 | 1.0 | 4.0 | 0.00 | 0.02 | 0.02 | 81 | 1011.8 |
| 20260905021404 | 85 | 0 | 1.0 | 4.0 | 0.00 | 0.02 | 0.02 | 81 | 1011.8 |
| 20260905021302 | 85 | 0 | 1.0 | 4.0 | 0.00 | 0.02 | 0.02 | 81 | 1011.8 |
| 20260905021204 | 85 | 0 | 1.0 | 4.0 | 0.00 | 0.02 | 0.02 | 81 | 1011.9 |
| 20260905021103 | 85 | 0 | 0.0 | 4.0 | 0.00 | 0.02 | 0.02 | 81 | 1011.8 |
| 20260905021003 | 85 | 0 | 2.0 | 4.0 | 0.00 | 0.02 | 0.02 | 81 | 1011.8 |
| 20260905020902 | 85 | 0 | 2.0 | 4.0 | 0.00 | 0.02 | 0.02 | 81 | 1011.7 |
| 20260905020802 | 85 | 0 | 2.0 | 3.0 | 0.00 | 0.02 | 0.02 | 81 | 1011.8 |
| 20260905020704 | 85 | 0 | 1.0 | 3.0 | 0.00 | 0.02 | 0.02 | 80 | 1011.7 |
| 20260905020604 | 85 | 0 | 1.0 | 3.0 | 0.00 | 0.02 | 0.02 | 80 | 1011.7 |
| 20260905020503 | 85 | 0 | 1.0 | 3.0 | 0.00 | 0.02 | 0.02 | 80 | 1011.7 |
| 20260905020403 | 85 | 0 | 1.0 | 3.0 | 0.00 | 0.02 | 0.02 | 80 | 1011.7 |
| 20260905020234 | 85 | 0 | 2.0 | 3.0 | 0.00 | 0.02 | 0.02 | 80 | 1011.7 |
| 20260905020131 | 85 | 0 | 2.0 | 3.0 | 0.00 | 0.02 | 0.02 | 80 | 1011.7 |
| 20260905020030 | 85 | 0 | 2.0 | 3.0 | 0.00 | 0.02 | 0.02 | 80 | 1011.7 |
| 20260905015933 | 85 | 0 | 2.0 | 3.0 | 0.00 | 0.02 | 0.02 | 80 | 1011.7 |
| 20260905015832 | 85 | 0 | 1.0 | 3.0 | 0.00 | 0.02 | 0.02 | 80 | 1011.7 |
| 20260905015731 | 85 | 0 | 0.0 | 3.0 | 0.00 | 0.02 | 0.02 | 80 | 1011.7 |
| 20260905015631 | 85 | 0 | 0.0 | 0.0 | 0.00 | 0.02 | 0.02 | 80 | 1011.7 |
| 20260905015532 | 85 | 0 | 0.0 | 0.0 | 0.00 | 0.02 | 0.02 | 80 | 1011.6 |
| 20260905015432 | 85 | 0 | 0.0 | 0.0 | 0.00 | 0.02 | 0.02 | 80 | 1011.6 |
| 20260905015332 | 85 | 0 | 0.0 | 0.0 | 0.00 | 0.02 | 0.02 | 80 | 1011.6 |
| 20260905015233 | 85 | 0 | 0.0 | 0.0 | 0.00 | 0.02 | 0.02 | 80 | 1011.6 |
| 20260905015131 | 85 | 0 | 0.0 | 0.0 | 0.00 | 0.02 | 0.02 | 80 | 1011.6 |
| 20260905015032 | 85 | 0 | 0.0 | 0.0 | 0.00 | 0.02 | 0.02 | 79 | 1011.6 |
| 20260905014932 | 84 | 0 | 0.0 | 0.0 | 0.00 | 0.02 | 0.02 | 79 | 1011.6 |
| 20260905014833 | 84 | 0 | 0.0 | 0.0 | 0.00 | 0.02 | 0.02 | 79 | 1011.6 |
| 20260905014732 | 84 | 0 | 0.0 | 0.0 | 0.00 | 0.02 | 0.02 | 79 | 1011.5 |
| 20260905014632 | 84 | 0 | 0.0 | 1.0 | 0.00 | 0.02 | 0.02 | 79 | 1011.5 |
| 20260905014532 | 84 | 0 | 0.0 | 1.0 | 0.00 | 0.02 | 0.02 | 79 | 1011.5 |
| 20260905014432 | 84 | 0 | 0.0 | 2.0 | 0.00 | 0.02 | 0.02 | 79 | 1011.5 |
| 20260905014331 | 84 | 0 | 0.0 | 2.0 | 0.00 | 0.02 | 0.02 | 79 | 1011.5 |
| 20260905014232 | 84 | 0 | 0.0 | 2.0 | 0.00 | 0.02 | 0.02 | 79 | 1011.5 |
| 20260905014131 | 84 | 0 | 0.0 | 2.0 | 0.00 | 0.02 | 0.02 | 79 | 1011.5 |
| 20260905014032 | 84 | 0 | 0.0 | 2.0 | 0.00 | 0.02 | 0.02 | 79 | 1011.5 |
| 20260905013932 | 84 | 0 | 0.0 | 2.0 | 0.00 | 0.02 | 0.02 | 79 | 1011.5 |
| 20260905013832 | 84 | 0 | 0.0 | 2.0 | 0.00 | 0.02 | 0.02 | 79 | 1011.5 |
| 20260905013733 | 84 | 0 | 0.0 | 2.0 | 0.00 | 0.02 | 0.02 | 79 | 1011.4 |
| 20260905013631 | 84 | 0 | 0.0 | 2.0 | 0.00 | 0.02 | 0.02 | 79 | 1011.5 |
| 20260905013533 | 84 | 0 | 0.0 | 2.0 | 0.00 | 0.02 | 0.02 | 79 | 1011.4 |
| 20260905013433 | 84 | 0 | 0.0 | 0.0 | 0.00 | 0.02 | 0.02 | 79 | 1011.5 |
| 20260905013332 | 84 | 0 | 0.0 | 2.0 | 0.00 | 0.02 | 0.02 | 79 | 1011.5 |
| 20260905013232 | 85 | 0 | 0.0 | 2.0 | 0.00 | 0.02 | 0.02 | 79 | 1011.4 |
| 20260905013131 | 85 | 0 | 0.0 | 2.0 | 0.00 | 0.02 | 0.02 | 79 | 1011.4 |
| 20260905013031 | 85 | 0 | 0.0 | 2.0 | 0.00 | 0.02 | 0.02 | 79 | 1011.4 |
| 20260905012932 | 85 | 293 | 0.0 | 3.0 | 0.00 | 0.02 | 0.02 | 79 | 1011.3 |
| 20260905012832 | 85 | 293 | 0.0 | 3.0 | 0.00 | 0.02 | 0.02 | 79 | 1011.3 |
| 20260905012732 | 85 | 293 | 0.0 | 3.0 | 0.00 | 0.02 | 0.02 | 79 | 1011.3 |
| 20260905012633 | 85 | 293 | 0.0 | 3.0 | 0.00 | 0.02 | 0.02 | 79 | 1011.3 |
| 20260905012532 | 85 | 293 | 0.0 | 3.0 | 0.00 | 0.02 | 0.02 | 79 | 1011.3 |
| 20260905012431 | 85 | 293 | 0.0 | 4.0 | 0.00 | 0.02 | 0.02 | 79 | 1011.3 |
| 20260905012333 | 85 | 296 | 0.0 | 4.0 | 0.00 | 0.02 | 0.02 | 79 | 1011.3 |
| 20260905012234 | 85 | 296 | 1.0 | 4.0 | 0.00 | 0.02 | 0.02 | 79 | 1011.3 |
| 20260905012132 | 85 | 298 | 2.0 | 4.0 | 0.00 | 0.02 | 0.02 | 79 | 1011.3 |
| 20260905012032 | 85 | 295 | 2.0 | 4.0 | 0.00 | 0.02 | 0.02 | 79 | 1011.3 |
| 20260905011931 | 85 | 293 | 2.0 | 4.0 | 0.00 | 0.02 | 0.02 | 79 | 1011.3 |
| 20260905011833 | 86 | 292 | 0.0 | 4.0 | 0.00 | 0.02 | 0.02 | 79 | 1011.3 |
| 20260905011731 | 86 | 292 | 0.0 | 4.0 | 0.00 | 0.02 | 0.02 | 79 | 1011.3 |
| 20260905011632 | 86 | 293 | 2.0 | 4.0 | 0.00 | 0.02 | 0.02 | 78 | 1011.2 |
| 20260905011533 | 86 | 292 | 2.0 | 4.0 | 0.00 | 0.02 | 0.02 | 78 | 1011.3 |
| 20260905011432 | 86 | 293 | 1.0 | 4.0 | 0.00 | 0.02 | 0.02 | 78 | 1011.3 |
| 20260905011332 | 87 | 293 | 0.0 | 4.0 | 0.00 | 0.02 | 0.02 | 77 | 1011.2 |
| 20260905011231 | 87 | 289 | 0.0 | 4.0 | 0.00 | 0.02 | 0.02 | 77 | 1011.2 |
| 20260905011131 | 87 | 285 | 1.0 | 4.0 | 0.00 | 0.02 | 0.02 | 76 | 1011.2 |
| 20260905011031 | 87 | 286 | 2.0 | 4.0 | 0.00 | 0.02 | 0.02 | 76 | 1011.2 |
| 20260905010931 | 87 | 313 | 3.0 | 4.0 | 0.00 | 0.02 | 0.02 | 75 | 1011.1 |
| 20260905010831 | 87 | 292 | 3.0 | 4.0 | 0.00 | 0.02 | 0.02 | 75 | 1011.2 |
| 20260905010732 | 87 | 241 | 2.0 | 3.0 | 0.00 | 0.02 | 0.02 | 74 | 1011.1 |
| 20260905010630 | 87 | 0 | 2.0 | 3.0 | 0.00 | 0.02 | 0.02 | 73 | 1011.2 |
| 20260905010532 | 88 | 214 | 2.0 | 3.0 | 0.00 | 0.02 | 0.02 | 73 | 1011.2 |
| 20260905010413 | 88 | 214 | 2.0 | 3.0 | 0.00 | 0.02 | 0.02 | 73 | 1011.2 |
| 20260905010312 | 88 | 214 | 2.0 | 4.0 | 0.00 | 0.02 | 0.02 | 73 | 1011.1 |
| 20260905010211 | 88 | 214 | 2.0 | 4.0 | 0.00 | 0.02 | 0.02 | 73 | 1011.2 |
| 20260905010111 | 88 | 214 | 2.0 | 4.0 | 0.00 | 0.02 | 0.02 | 73 | 1011.1 |
| 20260905010012 | 88 | 214 | 2.0 | 4.0 | 0.00 | 0.02 | 0.02 | 73 | 1011.1 |
| 20260905005913 | 88 | 214 | 0.0 | 4.0 | 0.00 | 0.02 | 0.02 | 72 | 1011.1 |
| 20260905005813 | 88 | 214 | 0.0 | 5.0 | 0.00 | 0.02 | 0.02 | 72 | 1011.2 |
| 20260905005713 | 88 | 214 | 0.0 | 5.0 | 0.00 | 0.02 | 0.02 | 72 | 1011.1 |
| 20260905005614 | 88 | 214 | 0.0 | 5.0 | 0.00 | 0.02 | 0.02 | 72 | 1011.1 |
| 20260905005513 | 88 | 214 | 1.0 | 6.0 | 0.00 | 0.02 | 0.02 | 72 | 1011.1 |
| 20260905005413 | 88 | 214 | 3.0 | 6.0 | 0.00 | 0.02 | 0.02 | 72 | 1011.1 |
| 20260905005311 | 88 | 213 | 3.0 | 6.0 | 0.00 | 0.02 | 0.02 | 72 | 1011.1 |
| 20260905005214 | 88 | 213 | 3.0 | 6.0 | 0.00 | 0.02 | 0.02 | 72 | 1011.1 |
| 20260905005112 | 88 | 213 | 3.0 | 6.0 | 0.00 | 0.02 | 0.02 | 72 | 1011.0 |
| 20260905005013 | 88 | 213 | 3.0 | 6.0 | 0.00 | 0.02 | 0.02 | 72 | 1011.1 |
| 20260905004911 | 88 | 213 | 3.0 | 6.0 | 0.00 | 0.02 | 0.02 | 72 | 1011.1 |
| 20260905004811 | 89 | 212 | 2.0 | 6.0 | 0.00 | 0.02 | 0.02 | 72 | 1011.1 |
| 20260905004712 | 89 | 207 | 3.0 | 6.0 | 0.00 | 0.02 | 0.02 | 72 | 1011.2 |
| 20260905004611 | 89 | 214 | 4.0 | 6.0 | 0.00 | 0.02 | 0.02 | 72 | 1011.2 |
| 20260905004512 | 89 | 193 | 3.0 | 4.0 | 0.00 | 0.02 | 0.02 | 72 | 1011.2 |
| 20260905004413 | 89 | 164 | 1.0 | 3.0 | 0.00 | 0.02 | 0.02 | 71 | 1011.2 |
| 20260905004312 | 89 | 164 | 1.0 | 3.0 | 0.00 | 0.02 | 0.02 | 71 | 1011.2 |
| 20260905004210 | 89 | 164 | 1.0 | 5.0 | 0.00 | 0.02 | 0.02 | 71 | 1011.2 |
| 20260905004110 | 89 | 164 | 1.0 | 6.0 | 0.00 | 0.02 | 0.02 | 71 | 1011.2 |
| 20260905004010 | 89 | 164 | 1.0 | 6.0 | 0.00 | 0.02 | 0.02 | 71 | 1011.1 |
| 20260905003910 | 89 | 164 | 1.0 | 6.0 | 0.00 | 0.02 | 0.02 | 71 | 1011.1 |
| 20260905003810 | 89 | 164 | 1.0 | 6.0 | 0.00 | 0.02 | 0.02 | 71 | 1011.1 |
| 20260905003711 | 89 | 164 | 1.0 | 6.0 | 0.00 | 0.02 | 0.02 | 71 | 1011.0 |
| 20260905003611 | 89 | 164 | 1.0 | 6.0 | 0.00 | 0.02 | 0.02 | 71 | 1011.0 |
| 20260905003510 | 89 | 162 | 2.0 | 6.0 | 0.00 | 0.02 | 0.02 | 71 | 1010.9 |
| 20260905003409 | 89 | 162 | 2.0 | 6.0 | 0.00 | 0.02 | 0.02 | 71 | 1011.0 |
| 20260905003312 | 89 | 169 | 3.0 | 6.0 | 0.00 | 0.02 | 0.02 | 71 | 1011.1 |
| 20260905003210 | 89 | 197 | 3.0 | 6.0 | 0.00 | 0.02 | 0.02 | 71 | 1011.0 |
| 20260905003109 | 89 | 142 | 3.0 | 6.0 | 0.00 | 0.02 | 0.02 | 71 | 1011.1 |
| 20260905003010 | 89 | 175 | 1.0 | 4.0 | 0.00 | 0.02 | 0.02 | 71 | 1011.0 |
| 20260905002910 | 89 | 171 | 2.0 | 4.0 | 0.00 | 0.02 | 0.02 | 72 | 1011.1 |
| 20260905002809 | 89 | 171 | 3.0 | 4.0 | 0.00 | 0.02 | 0.02 | 71 | 1011.0 |
| 20260905002710 | 89 | 157 | 4.0 | 4.0 | 0.00 | 0.02 | 0.02 | 72 | 1011.0 |
| 20260905002610 | 0 | 0.0 | 0.0 | 0.00 | 0.02 | 0.02 | 1011.0 | ||
| 20260905002510 | 0 | 0.0 | 0.0 | 0.00 | 0.02 | 0.02 | 1010.9 | ||
| 20260905002409 | 0 | 0.0 | 0.0 | 0.00 | 0.02 | 0.02 | 1010.9 | ||
| 20260905002309 | 0 | 0.0 | 0.0 | 0.00 | 0.02 | 0.02 | 1010.8 | ||
| 20260905002209 | 0 | 0.0 | 0.0 | 0.00 | 0.02 | 0.02 | 1010.7 | ||
| 20260905002110 | 0 | 0.0 | 0.0 | 0.00 | 0.02 | 0.02 | 1010.8 | ||
| 20260905002009 | 0 | 0.0 | 0.0 | 0.00 | 0.02 | 0.02 | 1010.7 | ||
| 20260905001905 | 0 | 0.0 | 0.0 | 0.00 | 0.02 | 0.02 | 1010.6 | ||
| 20260905001805 | 0 | 0.0 | 0.0 | 0.00 | 0.02 | 0.02 | 1010.5 | ||
| 20260905001705 | 0 | 0.0 | 0.0 | 0.00 | 0.02 | 0.02 | 1010.5 | ||
| 20260905001605 | 0 | 0.0 | 0.0 | 0.00 | 0.02 | 0.02 | 1010.5 | ||
| 20260905001505 | 0 | 0.0 | 0.0 | 0.00 | 0.02 | 0.02 | 1010.5 | ||
| 20260905001403 | 0 | 0.0 | 0.0 | 0.00 | 0.02 | 0.02 | 1010.4 | ||
| 20260905001304 | 0 | 0.0 | 0.0 | 0.00 | 0.02 | 0.02 | 1010.4 | ||
| 20260905001203 | 0 | 0.0 | 0.0 | 0.00 | 0.02 | 0.02 | 1010.4 | ||
| 20260905001105 | 0 | 0.0 | 0.0 | 0.00 | 0.02 | 0.02 | 1010.5 | ||
| 20260905001004 | 0 | 0.0 | 0.0 | 0.00 | 0.02 | 0.02 | 1010.4 | ||
| 20260905000903 | 0 | 0.0 | 0.0 | 0.00 | 0.02 | 0.02 | 1010.4 | ||
| 20260905000803 | 89 | 110 | 2.0 | 2.0 | 0.00 | 0.02 | 0.02 | 72 | 1010.5 |
| 20260905000703 | 89 | 110 | 2.0 | 3.0 | 0.00 | 0.02 | 0.02 | 72 | 1010.6 |
| 20260905000604 | 89 | 110 | 2.0 | 3.0 | 0.00 | 0.02 | 0.02 | 72 | 1010.6 |
| 20260905000502 | 89 | 110 | 2.0 | 4.0 | 0.00 | 0.02 | 0.02 | 72 | 1010.6 |
| 20260905000402 | 89 | 110 | 2.0 | 4.0 | 0.00 | 0.02 | 0.02 | 72 | 1010.5 |
| 20260905000303 | 89 | 110 | 2.0 | 5.0 | 0.00 | 0.02 | 0.02 | 72 | 1010.6 |
| 20260905000201 | 89 | 110 | 2.0 | 5.0 | 0.00 | 0.02 | 0.02 | 72 | 1010.6 |
| 20260905000101 | 89 | 110 | 2.0 | 5.0 | 0.00 | 0.02 | 0.02 | 72 | 1010.6 |
| 20260905000001 | 89 | 110 | 2.0 | 5.0 | 0.00 | 0.02 | 0.02 | 72 | 1010.6 |
| 20260904235900 | 89 | 110 | 2.0 | 5.0 | 0.00 | 0.02 | 0.02 | 72 | 1010.6 |
| 20260904235759 | 89 | 107 | 1.0 | 5.0 | 0.00 | 0.02 | 0.02 | 72 | 1010.6 |
| 20260904235659 | 90 | 140 | 2.0 | 5.0 | 0.00 | 0.02 | 0.02 | 72 | 1010.6 |
| 20260904235559 | 89 | 140 | 2.0 | 5.0 | 0.00 | 0.02 | 0.02 | 72 | 1010.7 |
| 20260904235500 | 90 | 168 | 2.0 | 6.0 | 0.00 | 0.02 | 0.02 | 72 | 1010.6 |
| 20260904235400 | 90 | 178 | 2.0 | 6.0 | 0.00 | 0.02 | 0.02 | 72 | 1010.6 |
| 20260904235259 | 89 | 179 | 2.0 | 10.0 | 0.00 | 0.02 | 0.02 | 71 | 1010.5 |
| 20260904235201 | 90 | 161 | 2.0 | 10.0 | 0.00 | 0.02 | 0.02 | 71 | 1010.6 |
| 20260904235059 | 90 | 147 | 2.0 | 10.0 | 0.00 | 0.02 | 0.02 | 71 | 1010.5 |
| 20260904235000 | 90 | 147 | 2.0 | 10.0 | 0.00 | 0.02 | 0.02 | 71 | 1010.5 |
| 20260904234900 | 90 | 100 | 3.0 | 10.0 | 0.00 | 0.02 | 0.02 | 71 | 1010.5 |
| 20260904234800 | 90 | 100 | 3.0 | 10.0 | 0.00 | 0.02 | 0.02 | 71 | 1010.5 |
| 20260904234700 | 90 | 100 | 3.0 | 10.0 | 0.00 | 0.02 | 0.02 | 71 | 1010.5 |
| 20260904234600 | 90 | 89 | 3.0 | 10.0 | 0.00 | 0.02 | 0.02 | 71 | 1010.5 |
| 20260904234500 | 90 | 103 | 5.0 | 10.0 | 0.00 | 0.02 | 0.02 | 71 | 1010.6 |
| 20260904234359 | 90 | 134 | 5.0 | 10.0 | 0.00 | 0.02 | 0.02 | 70 | 1010.6 |
| 20260904234259 | 90 | 130 | 4.0 | 9.0 | 0.00 | 0.02 | 0.02 | 70 | 1010.5 |
| 20260904234200 | 90 | 87 | 3.0 | 9.0 | 0.00 | 0.02 | 0.02 | 70 | 1010.5 |
| 20260904234100 | 90 | 134 | 3.0 | 9.0 | 0.00 | 0.02 | 0.02 | 70 | 1010.5 |
| 20260904234001 | 90 | 158 | 4.0 | 9.0 | 0.00 | 0.02 | 0.02 | 70 | 1010.5 |
| 20260904233900 | 90 | 109 | 4.0 | 9.0 | 0.00 | 0.02 | 0.02 | 70 | 1010.5 |
| 20260904233800 | 90 | 100 | 5.0 | 9.0 | 0.00 | 0.02 | 0.02 | 70 | 1010.6 |
| 20260904233700 | 90 | 123 | 5.0 | 9.0 | 0.00 | 0.02 | 0.02 | 70 | 1010.4 |
| 20260904233559 | 90 | 94 | 5.0 | 9.0 | 0.00 | 0.02 | 0.02 | 70 | 1010.5 |
| 20260904233500 | 90 | 90 | 5.0 | 9.0 | 0.00 | 0.02 | 0.02 | 70 | 1010.4 |
| 20260904233400 | 90 | 80 | 5.0 | 9.0 | 0.00 | 0.02 | 0.02 | 70 | 1010.5 |
| 20260904233300 | 90 | 83 | 4.0 | 7.0 | 0.00 | 0.02 | 0.02 | 70 | 1010.5 |
| 20260904233159 | 90 | 104 | 5.0 | 7.0 | 0.00 | 0.02 | 0.02 | 70 | 1010.5 |
| 20260904233123 | 90 | 100 | 5.0 | 7.0 | 0.00 | 0.02 | 0.02 | 70 | 1010.5 |
| 20260904232959 | 90 | 94 | 4.0 | 7.0 | 0.00 | 0.02 | 0.02 | 70 | 1010.5 |
| 20260904232900 | 90 | 102 | 4.0 | 7.0 | 0.00 | 0.02 | 0.02 | 70 | 1010.5 |
| 20260904232759 | 90 | 97 | 3.0 | 7.0 | 0.00 | 0.02 | 0.02 | 70 | 1010.5 |
| 20260904232659 | 90 | 99 | 4.0 | 7.0 | 0.00 | 0.02 | 0.02 | 69 | 1010.5 |
| 20260904232559 | 90 | 116 | 4.0 | 7.0 | 0.00 | 0.02 | 0.02 | 69 | 1010.5 |
| 20260904232500 | 90 | 107 | 4.0 | 7.0 | 0.00 | 0.02 | 0.02 | 69 | 1010.5 |
| 20260904232359 | 91 | 107 | 4.0 | 7.0 | 0.00 | 0.02 | 0.02 | 69 | 1010.5 |
| 20260904232259 | 91 | 120 | 5.0 | 7.0 | 0.00 | 0.02 | 0.02 | 69 | 1010.4 |
| 20260904232158 | 91 | 83 | 4.0 | 11.0 | 0.00 | 0.02 | 0.02 | 69 | 1010.5 |
| 20260904232058 | 91 | 114 | 4.0 | 11.0 | 0.00 | 0.02 | 0.02 | 69 | 1010.5 |
| 20260904231958 | 91 | 99 | 4.0 | 11.0 | 0.00 | 0.02 | 0.02 | 69 | 1010.5 |
| 20260904231858 | 91 | 107 | 4.0 | 11.0 | 0.00 | 0.02 | 0.02 | 69 | 1010.5 |
| 20260904231800 | 91 | 103 | 4.0 | 11.0 | 0.00 | 0.02 | 0.02 | 69 | 1010.5 |
| 20260904231658 | 91 | 102 | 4.0 | 11.0 | 0.00 | 0.02 | 0.02 | 69 | 1010.5 |
| 20260904231559 | 91 | 116 | 4.0 | 11.0 | 0.00 | 0.02 | 0.02 | 69 | 1010.5 |
| 20260904231458 | 91 | 89 | 4.0 | 11.0 | 0.00 | 0.02 | 0.02 | 69 | 1010.5 |
| 20260904231400 | 91 | 103 | 6.0 | 11.0 | 0.00 | 0.02 | 0.02 | 68 | 1010.5 |
| 20260904231259 | 91 | 104 | 7.0 | 11.0 | 0.00 | 0.02 | 0.02 | 68 | 1010.5 |
| 20260904231200 | 91 | 85 | 5.0 | 10.0 | 0.00 | 0.02 | 0.02 | 68 | 1010.5 |
| 20260904231058 | 91 | 113 | 4.0 | 10.0 | 0.00 | 0.02 | 0.02 | 68 | 1010.4 |
| 20260904230959 | 91 | 102 | 5.0 | 10.0 | 0.00 | 0.02 | 0.02 | 68 | 1010.5 |
| 20260904230858 | 91 | 89 | 5.0 | 10.0 | 0.00 | 0.02 | 0.02 | 68 | 1010.5 |
| 20260904230759 | 91 | 83 | 4.0 | 10.0 | 0.00 | 0.02 | 0.02 | 68 | 1010.5 |
| 20260904230700 | 91 | 94 | 3.0 | 7.0 | 0.00 | 0.02 | 0.02 | 67 | 1010.5 |
| 20260904230559 | 91 | 96 | 5.0 | 7.0 | 0.00 | 0.02 | 0.02 | 67 | 1010.5 |
| 20260904230459 | 91 | 100 | 5.0 | 7.0 | 0.00 | 0.02 | 0.02 | 67 | 1010.5 |
| 20260904230358 | 91 | 99 | 4.0 | 7.0 | 0.00 | 0.02 | 0.02 | 68 | 1010.5 |
| 20260904230300 | 91 | 118 | 4.0 | 7.0 | 0.00 | 0.02 | 0.02 | 68 | 1010.4 |
| 20260904230159 | 91 | 121 | 4.0 | 10.0 | 0.00 | 0.02 | 0.02 | 68 | 1010.4 |
| 20260904230059 | 91 | 79 | 2.0 | 10.0 | 0.00 | 0.02 | 0.02 | 68 | 1010.4 |
| 20260904225959 | 91 | 107 | 2.0 | 10.0 | 0.00 | 0.02 | 0.02 | 68 | 1010.4 |
| 20260904225859 | 91 | 92 | 3.0 | 10.0 | 0.00 | 0.02 | 0.02 | 68 | 1010.4 |
| 20260904225800 | 91 | 96 | 4.0 | 10.0 | 0.00 | 0.02 | 0.02 | 68 | 1010.4 |
| 20260904225659 | 91 | 97 | 3.0 | 10.0 | 0.00 | 0.02 | 0.02 | 68 | 1010.4 |
| 20260904225559 | 91 | 111 | 4.0 | 10.0 | 0.00 | 0.02 | 0.02 | 68 | 1010.5 |
| 20260904225458 | 91 | 114 | 5.0 | 10.0 | 0.00 | 0.02 | 0.02 | 68 | 1010.4 |
| 20260904225400 | 91 | 99 | 6.0 | 10.0 | 0.00 | 0.02 | 0.02 | 68 | 1010.4 |
| 20260904225300 | 91 | 97 | 6.0 | 10.0 | 0.00 | 0.02 | 0.02 | 67 | 1010.4 |
| 20260904225159 | 91 | 87 | 5.0 | 10.0 | 0.00 | 0.02 | 0.02 | 67 | 1010.4 |
| 20260904225059 | 91 | 102 | 6.0 | 10.0 | 0.00 | 0.02 | 0.02 | 67 | 1010.3 |
| 20260904224959 | 92 | 76 | 6.0 | 10.0 | 0.00 | 0.02 | 0.02 | 67 | 1010.4 |
| 20260904224859 | 92 | 87 | 5.0 | 10.0 | 0.00 | 0.02 | 0.02 | 68 | 1010.5 |
| 20260904224757 | 92 | 65 | 3.0 | 9.0 | 0.00 | 0.02 | 0.02 | 68 | 1010.5 |
| 20260904224658 | 92 | 120 | 2.0 | 9.0 | 0.00 | 0.02 | 0.02 | 67 | 1010.4 |
| 20260904224559 | 92 | 114 | 2.0 | 9.0 | 0.00 | 0.02 | 0.02 | 67 | 1010.5 |
| 20260904224459 | 92 | 114 | 2.0 | 9.0 | 0.00 | 0.02 | 0.02 | 67 | 1010.5 |
| 20260904224358 | 92 | 114 | 2.0 | 9.0 | 0.00 | 0.02 | 0.02 | 67 | 1010.4 |
| 20260904224257 | 92 | 113 | 2.0 | 9.0 | 0.00 | 0.02 | 0.02 | 67 | 1010.4 |
| 20260904224158 | 92 | 107 | 4.0 | 9.0 | 0.00 | 0.02 | 0.02 | 67 | 1010.5 |
| 20260904224058 | 91 | 103 | 5.0 | 9.0 | 0.00 | 0.02 | 0.02 | 67 | 1010.5 |
| 20260904223958 | 91 | 87 | 4.0 | 9.0 | 0.00 | 0.02 | 0.02 | 67 | 1010.4 |
| 20260904223859 | 91 | 134 | 3.0 | 7.0 | 0.00 | 0.02 | 0.02 | 68 | 1010.5 |
| 20260904223758 | 91 | 123 | 4.0 | 7.0 | 0.00 | 0.02 | 0.02 | 67 | 1010.5 |
| 20260904223658 | 91 | 117 | 5.0 | 7.0 | 0.00 | 0.02 | 0.02 | 67 | 1010.4 |
| 20260904223557 | 91 | 97 | 5.0 | 7.0 | 0.00 | 0.02 | 0.02 | 67 | 1010.4 |
| 20260904223459 | 91 | 92 | 5.0 | 7.0 | 0.00 | 0.02 | 0.02 | 67 | 1010.5 |
| 20260904223358 | 91 | 92 | 5.0 | 7.0 | 0.00 | 0.02 | 0.02 | 67 | 1010.5 |
| 20260904223258 | 91 | 92 | 5.0 | 7.0 | 0.00 | 0.02 | 0.02 | 67 | 1010.6 |
| 20260904223135 | 91 | 99 | 5.0 | 9.0 | 0.00 | 0.02 | 0.02 | 67 | 1010.5 |
| 20260904223035 | 91 | 100 | 4.0 | 9.0 | 0.00 | 0.02 | 0.02 | 67 | 1010.5 |
| 20260904222932 | 91 | 86 | 2.0 | 9.0 | 0.00 | 0.02 | 0.02 | 68 | 1010.5 |
| 20260904222831 | 91 | 97 | 3.0 | 9.0 | 0.00 | 0.02 | 0.02 | 68 | 1010.5 |
| 20260904222732 | 91 | 97 | 4.0 | 9.0 | 0.00 | 0.02 | 0.02 | 67 | 1010.5 |
| 20260904222632 | 91 | 94 | 5.0 | 9.0 | 0.00 | 0.02 | 0.02 | 67 | 1010.5 |
| 20260904222531 | 91 | 96 | 5.0 | 9.0 | 0.00 | 0.02 | 0.02 | 67 | 1010.5 |
| 20260904222433 | 91 | 103 | 4.0 | 9.0 | 0.00 | 0.02 | 0.02 | 67 | 1010.5 |
| 20260904222333 | 91 | 103 | 5.0 | 9.0 | 0.00 | 0.02 | 0.02 | 67 | 1010.5 |
| 20260904222231 | 91 | 96 | 6.0 | 9.0 | 0.00 | 0.02 | 0.02 | 67 | 1010.5 |
| 20260904222132 | 91 | 113 | 5.0 | 7.0 | 0.00 | 0.02 | 0.02 | 67 | 1010.5 |
| 20260904222021 | 92 | 82 | 5.0 | 7.0 | 0.00 | 0.02 | 0.02 | 67 | 1010.5 |
| 20260904221918 | 92 | 94 | 5.0 | 7.0 | 0.00 | 0.02 | 0.02 | 67 | 1010.5 |
| 20260904221812 | 92 | 96 | 3.0 | 7.0 | 0.00 | 0.02 | 0.02 | 67 | 1010.5 |
| 20260904221710 | 92 | 107 | 3.0 | 7.0 | 0.00 | 0.02 | 0.02 | 66 | 1010.5 |
| 20260904221606 | 92 | 107 | 4.0 | 7.0 | 0.00 | 0.02 | 0.02 | 66 | 1010.5 |
| 20260904221506 | 92 | 113 | 4.0 | 7.0 | 0.00 | 0.02 | 0.02 | 66 | 1010.5 |
| 20260904221404 | 92 | 97 | 3.0 | 9.0 | 0.00 | 0.02 | 0.02 | 66 | 1010.6 |
| 20260904221304 | 92 | 107 | 3.0 | 9.0 | 0.00 | 0.02 | 0.02 | 66 | 1010.6 |
| 20260904221203 | 92 | 114 | 4.0 | 9.0 | 0.00 | 0.02 | 0.02 | 66 | 1010.5 |
| 20260904221103 | 92 | 131 | 3.0 | 9.0 | 0.00 | 0.02 | 0.02 | 66 | 1010.6 |
| 20260904221003 | 92 | 131 | 3.0 | 9.0 | 0.00 | 0.02 | 0.02 | 66 | 1010.6 |
| 20260904220904 | 92 | 131 | 3.0 | 12.0 | 0.00 | 0.02 | 0.02 | 66 | 1010.7 |
| 20260904220803 | 92 | 131 | 3.0 | 12.0 | 0.00 | 0.02 | 0.02 | 66 | 1010.6 |
| 20260904220703 | 92 | 137 | 4.0 | 12.0 | 0.00 | 0.02 | 0.02 | 66 | 1010.7 |
| 20260904220603 | 92 | 92 | 4.0 | 12.0 | 0.00 | 0.02 | 0.02 | 66 | 1010.7 |
| 20260904220504 | 92 | 96 | 4.0 | 12.0 | 0.00 | 0.02 | 0.02 | 67 | 1010.7 |
| 20260904220404 | 92 | 104 | 4.0 | 12.0 | 0.00 | 0.02 | 0.02 | 67 | 1010.7 |
| 20260904220304 | 91 | 131 | 4.0 | 12.0 | 0.00 | 0.02 | 0.02 | 68 | 1010.8 |
| 20260904220204 | 91 | 96 | 4.0 | 12.0 | 0.00 | 0.02 | 0.02 | 68 | 1010.8 |
| 20260904220005 | 92 | 104 | 9.0 | 12.0 | 0.00 | 0.02 | 0.02 | 67 | 1010.8 |
| 20260904215859 | 92 | 107 | 9.0 | 9.0 | 0.00 | 0.02 | 0.02 | 67 | 1010.8 |
| 20260904215758 | 91 | 103 | 4.0 | 9.0 | 0.00 | 0.02 | 0.02 | 68 | 1010.8 |
| 20260904215658 | 91 | 103 | 4.0 | 9.0 | 0.00 | 0.02 | 0.02 | 68 | 1010.8 |
| 20260904215557 | 91 | 103 | 4.0 | 13.0 | 0.00 | 0.02 | 0.02 | 68 | 1010.8 |
| 20260904215456 | 91 | 103 | 5.0 | 14.0 | 0.00 | 0.02 | 0.02 | 68 | 1010.7 |
| 20260904215357 | 91 | 104 | 4.0 | 14.0 | 0.00 | 0.02 | 0.02 | 69 | 1010.8 |
| 20260904215257 | 91 | 76 | 4.0 | 14.0 | 0.00 | 0.02 | 0.02 | 68 | 1010.7 |
| 20260904215157 | 91 | 100 | 5.0 | 14.0 | 0.00 | 0.02 | 0.02 | 68 | 1010.7 |
| 20260904215058 | 92 | 97 | 4.0 | 14.0 | 0.00 | 0.02 | 0.02 | 67 | 1010.7 |
| 20260904214957 | 92 | 124 | 8.0 | 14.0 | 0.00 | 0.02 | 0.02 | 66 | 1010.8 |
| 20260904214858 | 92 | 124 | 8.0 | 14.0 | 0.00 | 0.02 | 0.02 | 66 | 1010.8 |
| 20260904214751 | 92 | 127 | 8.0 | 14.0 | 0.00 | 0.02 | 0.02 | 66 | 1010.8 |
| 20260904214649 | 92 | 94 | 8.0 | 14.0 | 0.00 | 0.02 | 0.02 | 66 | 1010.8 |
| 20260904214547 | 92 | 94 | 7.0 | 14.0 | 0.00 | 0.02 | 0.02 | 67 | 1010.8 |
| 20260904214446 | 92 | 103 | 5.0 | 13.0 | 0.00 | 0.02 | 0.02 | 67 | 1010.7 |
| 20260904214345 | 92 | 94 | 5.0 | 13.0 | 0.00 | 0.02 | 0.02 | 66 | 1010.7 |
| 20260904214244 | 93 | 89 | 5.0 | 13.0 | 0.00 | 0.02 | 0.02 | 67 | 1010.6 |
| 20260904214142 | 93 | 114 | 6.0 | 13.0 | 0.00 | 0.02 | 0.02 | 65 | 1010.8 |
| 20260904214037 | 93 | 109 | 7.0 | 13.0 | 0.00 | 0.02 | 0.02 | 65 | 1010.7 |
| 20260904213936 | 93 | 107 | 6.0 | 13.0 | 0.00 | 0.02 | 0.02 | 64 | 1010.6 |
| 20260904213835 | 93 | 89 | 4.0 | 10.0 | 0.00 | 0.02 | 0.02 | 66 | 1010.8 |
| 20260904213733 | 93 | 85 | 5.0 | 10.0 | 0.00 | 0.02 | 0.02 | 64 | 1010.8 |
| 20260904213630 | 93 | 110 | 4.0 | 9.0 | 0.00 | 0.02 | 0.02 | 64 | 1010.8 |
| 20260904213532 | 93 | 87 | 3.0 | 7.0 | 0.00 | 0.02 | 0.02 | 65 | 1010.7 |
| 20260904213431 | 93 | 96 | 3.0 | 7.0 | 0.00 | 0.02 | 0.02 | 64 | 1010.8 |
| 20260904213332 | 93 | 130 | 3.0 | 7.0 | 0.00 | 0.02 | 0.02 | 63 | 1010.8 |
| 20260904213229 | 93 | 96 | 4.0 | 7.0 | 0.00 | 0.02 | 0.02 | 63 | 1010.8 |
| 20260904213125 | 93 | 180 | 2.0 | 7.0 | 0.00 | 0.02 | 0.02 | 61 | 1010.8 |
| 20260904213013 | 94 | 97 | 3.0 | 7.0 | 0.00 | 0.02 | 0.02 | 62 | 1010.9 |
| 20260904212911 | 94 | 96 | 4.0 | 7.0 | 0.00 | 0.02 | 0.02 | 62 | 1010.8 |
| 20260904212804 | 94 | 97 | 4.0 | 7.0 | 0.00 | 0.02 | 0.02 | 61 | 1010.8 |
| 20260904212704 | 93 | 154 | 3.0 | 6.0 | 0.00 | 0.02 | 0.02 | 61 | 1010.8 |
| 20260904212604 | 93 | 189 | 2.0 | 6.0 | 0.00 | 0.02 | 0.02 | 60 | 1010.8 |
| 20260904212502 | 93 | 195 | 2.0 | 6.0 | 0.00 | 0.02 | 0.02 | 59 | 1010.8 |
| 20260904212404 | 93 | 196 | 3.0 | 6.0 | 0.00 | 0.02 | 0.02 | 59 | 1010.9 |
| 20260904212302 | 93 | 196 | 4.0 | 6.0 | 0.00 | 0.02 | 0.02 | 59 | 1010.8 |
| 20260904212201 | 93 | 124 | 4.0 | 5.0 | 0.00 | 0.02 | 0.02 | 59 | 1010.9 |
| 20260904212104 | 93 | 188 | 2.0 | 5.0 | 0.00 | 0.02 | 0.02 | 59 | 1010.9 |
| 20260904212003 | 93 | 188 | 2.0 | 5.0 | 0.00 | 0.02 | 0.02 | 59 | 1010.9 |
| 20260904211903 | 93 | 188 | 2.0 | 5.0 | 0.00 | 0.02 | 0.02 | 59 | 1010.9 |
| 20260904211803 | 93 | 188 | 2.0 | 5.0 | 0.00 | 0.02 | 0.02 | 59 | 1010.9 |
| 20260904211703 | 93 | 188 | 2.0 | 5.0 | 0.00 | 0.02 | 0.02 | 59 | 1010.9 |
| 20260904211604 | 93 | 188 | 1.0 | 5.0 | 0.00 | 0.02 | 0.02 | 58 | 1011.0 |
| 20260904211504 | 93 | 188 | 2.0 | 5.0 | 0.00 | 0.02 | 0.02 | 58 | 1010.9 |
| 20260904211403 | 93 | 188 | 4.0 | 5.0 | 0.00 | 0.02 | 0.02 | 58 | 1011.0 |
| 20260904211303 | 93 | 188 | 3.0 | 5.0 | 0.00 | 0.02 | 0.02 | 59 | 1011.1 |
| 20260904211202 | 93 | 185 | 3.0 | 4.0 | 0.00 | 0.02 | 0.02 | 58 | 1011.0 |
| 20260904211103 | 93 | 200 | 3.0 | 4.0 | 0.00 | 0.02 | 0.02 | 59 | 1011.0 |
| 20260904211003 | 93 | 220 | 2.0 | 3.0 | 0.00 | 0.02 | 0.02 | 59 | 1011.1 |
| 20260904210902 | 93 | 220 | 2.0 | 3.0 | 0.00 | 0.02 | 0.02 | 59 | 1011.0 |
| 20260904210804 | 92 | 223 | 0.0 | 2.0 | 0.00 | 0.02 | 0.02 | 59 | 1011.1 |
| 20260904210703 | 92 | 223 | 0.0 | 2.0 | 0.00 | 0.02 | 0.02 | 59 | 1011.0 |
| 20260904210603 | 92 | 223 | 0.0 | 3.0 | 0.00 | 0.02 | 0.02 | 59 | 1011.1 |
| 20260904210502 | 92 | 223 | 0.0 | 4.0 | 0.00 | 0.02 | 0.02 | 59 | 1011.1 |
| 20260904210403 | 92 | 223 | 0.0 | 5.0 | 0.00 | 0.02 | 0.02 | 62 | 1011.1 |
| 20260904210303 | 92 | 224 | 1.0 | 5.0 | 0.00 | 0.02 | 0.02 | 62 | 1011.1 |
| 20260904210202 | 92 | 224 | 1.0 | 5.0 | 0.00 | 0.02 | 0.02 | 62 | 1011.1 |
| 20260904210104 | 92 | 224 | 0.0 | 5.0 | 0.00 | 0.02 | 0.02 | 63 | 1011.2 |
| 20260904210002 | 92 | 224 | 0.0 | 5.0 | 0.00 | 0.02 | 0.02 | 63 | 1011.1 |
| 20260904205903 | 92 | 224 | 0.0 | 5.0 | 0.00 | 0.02 | 0.02 | 63 | 1011.1 |
| 20260904205802 | 92 | 224 | 1.0 | 5.0 | 0.00 | 0.02 | 0.02 | 62 | 1011.3 |
| 20260904205703 | 92 | 224 | 2.0 | 5.0 | 0.00 | 0.02 | 0.02 | 62 | 1011.3 |
| 20260904205602 | 92 | 224 | 3.0 | 6.0 | 0.00 | 0.02 | 0.02 | 61 | 1011.2 |
| 20260904205502 | 92 | 224 | 3.0 | 6.0 | 0.00 | 0.02 | 0.02 | 61 | 1011.3 |
| 20260904205403 | 92 | 224 | 2.0 | 6.0 | 0.00 | 0.02 | 0.02 | 62 | 1011.3 |
| 20260904205306 | 92 | 223 | 2.0 | 6.0 | 0.00 | 0.03 | 0.02 | 63 | 1011.3 |
| 20260904205203 | 92 | 223 | 3.0 | 6.0 | 0.00 | 0.03 | 0.02 | 63 | 1011.3 |
| 20260904205103 | 92 | 223 | 3.0 | 6.0 | 0.00 | 0.03 | 0.02 | 64 | 1011.3 |
| 20260904205002 | 92 | 235 | 2.0 | 6.0 | 0.00 | 0.03 | 0.02 | 65 | 1011.3 |
| 20260904204903 | 92 | 276 | 2.0 | 6.0 | 0.00 | 0.03 | 0.02 | 65 | 1011.4 |
| 20260904204804 | 92 | 276 | 3.0 | 6.0 | 0.00 | 0.03 | 0.02 | 65 | 1011.4 |
| 20260904204702 | 92 | 274 | 3.0 | 6.0 | 0.00 | 0.03 | 0.02 | 66 | 1011.4 |
| 20260904204604 | 92 | 233 | 2.0 | 6.0 | 0.00 | 0.03 | 0.02 | 66 | 1011.4 |
| 20260904204503 | 91 | 254 | 2.0 | 6.0 | 0.00 | 0.03 | 0.02 | 66 | 1011.4 |
| 20260904204403 | 91 | 231 | 4.0 | 6.0 | 0.00 | 0.03 | 0.02 | 66 | 1011.5 |
| 20260904204303 | 91 | 231 | 4.0 | 6.0 | 0.00 | 0.03 | 0.02 | 66 | 1011.5 |
| 20260904204203 | 91 | 231 | 4.0 | 6.0 | 0.00 | 0.03 | 0.02 | 66 | 1011.5 |
| 20260904204103 | 91 | 231 | 4.0 | 6.0 | 0.00 | 0.03 | 0.02 | 66 | 1011.5 |
| 20260904204004 | 91 | 251 | 3.0 | 6.0 | 0.00 | 0.03 | 0.02 | 68 | 1011.5 |
| 20260904203902 | 91 | 251 | 2.0 | 5.0 | 0.00 | 0.03 | 0.02 | 67 | 1011.5 |
| 20260904203802 | 91 | 251 | 3.0 | 5.0 | 0.00 | 0.03 | 0.02 | 67 | 1011.5 |
| 20260904203702 | 91 | 251 | 3.0 | 5.0 | 0.00 | 0.03 | 0.02 | 68 | 1011.5 |
| 20260904203556 | 90 | 247 | 3.0 | 5.0 | 0.00 | 0.03 | 0.02 | 68 | 1011.5 |
| 20260904203457 | 90 | 247 | 3.0 | 6.0 | 0.00 | 0.03 | 0.02 | 67 | 1011.5 |
| 20260904203356 | 90 | 240 | 3.0 | 7.0 | 0.00 | 0.03 | 0.02 | 67 | 1011.5 |
| 20260904203255 | 90 | 241 | 4.0 | 7.0 | 0.00 | 0.03 | 0.02 | 67 | 1011.5 |
| 20260904203155 | 90 | 241 | 2.0 | 7.0 | 0.00 | 0.03 | 0.02 | 67 | 1011.6 |
| 20260904203056 | 91 | 217 | 3.0 | 7.0 | 0.00 | 0.03 | 0.02 | 67 | 1011.6 |
| 20260904202955 | 91 | 217 | 3.0 | 7.0 | 0.00 | 0.03 | 0.02 | 67 | 1011.7 |
| 20260904202856 | 91 | 217 | 3.0 | 7.0 | 0.00 | 0.03 | 0.02 | 67 | 1011.7 |
| 20260904202733 | 91 | 217 | 3.0 | 7.0 | 0.00 | 0.03 | 0.02 | 67 | 1011.7 |
| 20260904202631 | 91 | 220 | 5.0 | 7.0 | 0.00 | 0.03 | 0.02 | 67 | 1011.8 |
| 20260904202531 | 91 | 244 | 4.0 | 7.0 | 0.00 | 0.03 | 0.02 | 68 | 1011.8 |
| 20260904202431 | 90 | 245 | 4.0 | 7.0 | 0.00 | 0.03 | 0.02 | 68 | 1011.9 |
| 20260904202332 | 90 | 241 | 4.0 | 7.0 | 0.00 | 0.03 | 0.02 | 67 | 1011.9 |
| 20260904202231 | 90 | 247 | 4.0 | 7.0 | 0.00 | 0.03 | 0.02 | 68 | 1011.9 |
| 20260904202132 | 90 | 241 | 3.0 | 6.0 | 0.00 | 0.03 | 0.02 | 67 | 1011.9 |
| 20260904202031 | 90 | 241 | 3.0 | 6.0 | 0.00 | 0.03 | 0.02 | 67 | 1011.9 |
| 20260904201932 | 90 | 243 | 3.0 | 7.0 | 0.00 | 0.03 | 0.02 | 67 | 1011.9 |
| 20260904201831 | 91 | 261 | 3.0 | 7.0 | 0.00 | 0.03 | 0.02 | 67 | 1011.9 |
| 20260904201733 | 91 | 254 | 3.0 | 7.0 | 0.00 | 0.03 | 0.02 | 66 | 1011.9 |
| 20260904201632 | 91 | 252 | 4.0 | 7.0 | 0.00 | 0.03 | 0.02 | 67 | 1011.9 |
| 20260904201532 | 91 | 259 | 4.0 | 7.0 | 0.00 | 0.03 | 0.02 | 67 | 1011.9 |
| 20260904201433 | 91 | 214 | 4.0 | 7.0 | 0.00 | 0.03 | 0.02 | 67 | 1011.9 |
| 20260904201332 | 91 | 220 | 5.0 | 7.0 | 0.00 | 0.03 | 0.02 | 67 | 1011.9 |
| 20260904201233 | 91 | 220 | 5.0 | 7.0 | 0.00 | 0.03 | 0.02 | 67 | 1011.9 |
| 20260904201132 | 91 | 220 | 5.0 | 7.0 | 0.00 | 0.03 | 0.02 | 67 | 1011.9 |
| 20260904201032 | 91 | 220 | 5.0 | 11.0 | 0.00 | 0.03 | 0.02 | 67 | 1012.0 |
| 20260904200931 | 91 | 224 | 4.0 | 11.0 | 0.00 | 0.03 | 0.02 | 67 | 1011.8 |
| 20260904200831 | 91 | 182 | 3.0 | 11.0 | 0.00 | 0.03 | 0.02 | 67 | 1011.9 |
| 20260904200732 | 91 | 176 | 3.0 | 11.0 | 0.00 | 0.03 | 0.02 | 67 | 1011.9 |
| 20260904200633 | 91 | 176 | 3.0 | 11.0 | 0.00 | 0.03 | 0.02 | 67 | 1011.9 |
| 20260904200533 | 91 | 176 | 3.0 | 11.0 | 0.00 | 0.03 | 0.02 | 67 | 1011.9 |
| 20260904200432 | 91 | 176 | 3.0 | 11.0 | 0.00 | 0.03 | 0.02 | 67 | 1012.0 |
| 20260904200308 | 91 | 204 | 4.0 | 11.0 | 0.00 | 0.03 | 0.02 | 68 | 1011.9 |
| 20260904200207 | 91 | 221 | 5.0 | 11.0 | 0.00 | 0.03 | 0.02 | 68 | 1011.9 |
| 20260904200104 | 91 | 182 | 4.0 | 9.0 | 0.00 | 0.03 | 0.02 | 69 | 1011.9 |
| 20260904200004 | 90 | 233 | 2.0 | 6.0 | 0.00 | 0.03 | 0.02 | 70 | 1011.9 |
| 20260904195902 | 90 | 234 | 2.0 | 6.0 | 0.00 | 0.03 | 0.02 | 69 | 1011.9 |
| 20260904195801 | 90 | 234 | 4.0 | 6.0 | 0.00 | 0.03 | 0.02 | 69 | 1011.9 |
| 20260904195703 | 90 | 235 | 4.0 | 6.0 | 0.00 | 0.03 | 0.02 | 70 | 1011.9 |
| 20260904195603 | 90 | 234 | 4.0 | 6.0 | 0.00 | 0.03 | 0.02 | 70 | 1012.0 |
| 20260904195502 | 90 | 234 | 6.0 | 6.0 | 0.00 | 0.03 | 0.02 | 69 | 1011.9 |
| 20260904195403 | 90 | 266 | 4.0 | 6.0 | 0.00 | 0.03 | 0.02 | 71 | 1012.0 |
| 20260904195306 | 90 | 266 | 4.0 | 6.0 | 0.00 | 0.03 | 0.02 | 71 | 1011.9 |
| 20260904195154 | 90 | 266 | 4.0 | 6.0 | 0.00 | 0.03 | 0.02 | 71 | 1012.0 |
| 20260904195038 | 90 | 275 | 3.0 | 6.0 | 0.00 | 0.03 | 0.02 | 71 | 1011.9 |
| 20260904194935 | 90 | 223 | 3.0 | 6.0 | 0.00 | 0.03 | 0.02 | 68 | 1012.0 |
| 20260904194831 | 90 | 221 | 4.0 | 6.0 | 0.00 | 0.03 | 0.02 | 68 | 1012.1 |
| 20260904194731 | 90 | 221 | 4.0 | 6.0 | 0.00 | 0.03 | 0.02 | 68 | 1012.0 |
| 20260904194632 | 90 | 220 | 4.0 | 5.0 | 0.00 | 0.03 | 0.02 | 70 | 1012.1 |
| 20260904194533 | 90 | 248 | 3.0 | 5.0 | 0.00 | 0.03 | 0.02 | 72 | 1012.0 |
| 20260904194432 | 90 | 248 | 3.0 | 5.0 | 0.00 | 0.03 | 0.02 | 72 | 1012.0 |
| 20260904194331 | 90 | 248 | 2.0 | 5.0 | 0.00 | 0.03 | 0.02 | 72 | 1012.0 |
| 20260904194231 | 89 | 203 | 2.0 | 5.0 | 0.00 | 0.03 | 0.02 | 71 | 1012.0 |
| 20260904194133 | 89 | 220 | 2.0 | 5.0 | 0.00 | 0.03 | 0.02 | 71 | 1012.0 |
| 20260904194016 | 89 | 220 | 2.0 | 5.0 | 0.00 | 0.03 | 0.02 | 72 | 1012.0 |
| 20260904193912 | 89 | 221 | 3.0 | 5.0 | 0.00 | 0.03 | 0.02 | 71 | 1012.1 |
| 20260904193810 | 89 | 221 | 3.0 | 5.0 | 0.00 | 0.03 | 0.02 | 73 | 1012.1 |
| 20260904193710 | 89 | 213 | 2.0 | 5.0 | 0.00 | 0.03 | 0.02 | 73 | 1012.2 |
| 20260904193609 | 88 | 221 | 2.0 | 5.0 | 0.00 | 0.03 | 0.02 | 74 | 1012.2 |
| 20260904193510 | 88 | 223 | 3.0 | 5.0 | 0.00 | 0.03 | 0.02 | 75 | 1012.2 |
| 20260904193407 | 88 | 250 | 4.0 | 6.0 | 0.00 | 0.03 | 0.02 | 75 | 1012.2 |
| 20260904193307 | 88 | 231 | 3.0 | 6.0 | 0.00 | 0.03 | 0.02 | 76 | 1012.2 |
| 20260904193204 | 88 | 230 | 2.0 | 6.0 | 0.00 | 0.03 | 0.02 | 76 | 1012.3 |
| 20260904193103 | 88 | 231 | 3.0 | 6.0 | 0.00 | 0.03 | 0.02 | 76 | 1012.3 |
| 20260904193004 | 88 | 241 | 3.0 | 6.0 | 0.00 | 0.03 | 0.02 | 78 | 1012.3 |
| 20260904192904 | 88 | 241 | 3.0 | 6.0 | 0.00 | 0.03 | 0.02 | 78 | 1012.3 |
| 20260904192803 | 88 | 241 | 3.0 | 6.0 | 0.00 | 0.03 | 0.02 | 78 | 1012.4 |
| 20260904192704 | 88 | 241 | 3.0 | 6.0 | 0.00 | 0.03 | 0.02 | 78 | 1012.3 |
| 20260904192603 | 88 | 238 | 4.0 | 6.0 | 0.00 | 0.03 | 0.02 | 77 | 1012.3 |
| 20260904192503 | 88 | 268 | 3.0 | 6.0 | 0.00 | 0.03 | 0.02 | 77 | 1012.4 |
| 20260904192403 | 88 | 261 | 3.0 | 6.0 | 0.00 | 0.03 | 0.02 | 78 | 1012.4 |
| 20260904192306 | 88 | 292 | 4.0 | 6.0 | 0.00 | 0.03 | 0.02 | 78 | 1012.4 |
| 20260904192202 | 88 | 278 | 4.0 | 6.0 | 0.00 | 0.03 | 0.02 | 78 | 1012.4 |
| 20260904192103 | 88 | 285 | 2.0 | 6.0 | 0.00 | 0.03 | 0.02 | 79 | 1012.4 |
| 20260904192003 | 87 | 230 | 0.0 | 6.0 | 0.00 | 0.03 | 0.02 | 79 | 1012.4 |
| 20260904191902 | 87 | 228 | 0.0 | 6.0 | 0.00 | 0.03 | 0.02 | 78 | 1012.3 |
| 20260904191803 | 87 | 228 | 1.0 | 6.0 | 0.00 | 0.03 | 0.02 | 78 | 1012.3 |
| 20260904191704 | 87 | 230 | 3.0 | 6.0 | 0.00 | 0.03 | 0.02 | 78 | 1012.3 |
| 20260904191602 | 87 | 230 | 3.0 | 6.0 | 0.00 | 0.03 | 0.02 | 78 | 1012.4 |
| 20260904191502 | 87 | 282 | 2.0 | 6.0 | 0.00 | 0.03 | 0.02 | 79 | 1012.4 |
| 20260904191404 | 87 | 282 | 2.0 | 6.0 | 0.00 | 0.03 | 0.02 | 79 | 1012.4 |
| 20260904191303 | 87 | 283 | 3.0 | 6.0 | 0.00 | 0.03 | 0.02 | 79 | 1012.4 |
| 20260904191203 | 87 | 282 | 3.0 | 6.0 | 0.00 | 0.03 | 0.02 | 80 | 1012.4 |
| 20260904191102 | 87 | 268 | 4.0 | 6.0 | 0.00 | 0.03 | 0.02 | 80 | 1012.4 |
| 20260904191003 | 87 | 258 | 5.0 | 6.0 | 0.00 | 0.03 | 0.02 | 80 | 1012.4 |
| 20260904190902 | 87 | 266 | 4.0 | 6.0 | 0.00 | 0.03 | 0.02 | 80 | 1012.5 |
| 20260904190802 | 87 | 272 | 4.0 | 6.0 | 0.00 | 0.03 | 0.02 | 81 | 1012.4 |
| 20260904190703 | 87 | 261 | 4.0 | 6.0 | 0.00 | 0.03 | 0.02 | 81 | 1012.5 |
| 20260904190603 | 87 | 278 | 4.0 | 6.0 | 0.00 | 0.03 | 0.02 | 80 | 1012.6 |
| 20260904190504 | 87 | 278 | 4.0 | 6.0 | 0.00 | 0.03 | 0.02 | 80 | 1012.6 |
| 20260904190403 | 87 | 278 | 4.0 | 6.0 | 0.00 | 0.03 | 0.02 | 80 | 1012.7 |
| 20260904190258 | 87 | 278 | 4.0 | 6.0 | 0.00 | 0.03 | 0.02 | 80 | 1012.7 |
| 20260904190156 | 87 | 278 | 4.0 | 6.0 | 0.00 | 0.03 | 0.02 | 81 | 1012.8 |
| 20260904190054 | 87 | 254 | 3.0 | 5.0 | 0.00 | 0.03 | 0.02 | 82 | 1012.8 |
| 20260904185953 | 86 | 255 | 3.0 | 4.0 | 0.00 | 0.03 | 0.02 | 82 | 1012.8 |
| 20260904185853 | 86 | 257 | 3.0 | 5.0 | 0.00 | 0.03 | 0.02 | 81 | 1012.8 |
| 20260904185753 | 86 | 258 | 2.0 | 5.0 | 0.00 | 0.03 | 0.02 | 82 | 1012.9 |
| 20260904185654 | 85 | 252 | 0.0 | 5.0 | 0.00 | 0.03 | 0.02 | 83 | 1012.8 |
| 20260904185552 | 85 | 252 | 0.0 | 5.0 | 0.00 | 0.03 | 0.02 | 83 | 1012.9 |
| 20260904185452 | 85 | 252 | 1.0 | 5.0 | 0.00 | 0.03 | 0.02 | 84 | 1012.9 |
| 20260904185352 | 85 | 252 | 2.0 | 5.0 | 0.00 | 0.03 | 0.02 | 85 | 1012.9 |
| 20260904185253 | 84 | 252 | 1.0 | 5.0 | 0.00 | 0.03 | 0.02 | 85 | 1012.9 |
| 20260904185152 | 84 | 252 | 2.0 | 5.0 | 0.00 | 0.03 | 0.02 | 84 | 1013.0 |
| 20260904185053 | 84 | 252 | 3.0 | 5.0 | 0.00 | 0.03 | 0.02 | 84 | 1013.0 |
| 20260904184955 | 84 | 252 | 4.0 | 5.0 | 0.00 | 0.03 | 0.02 | 84 | 1013.0 |
| 20260904184852 | 84 | 252 | 3.0 | 4.0 | 0.00 | 0.03 | 0.02 | 85 | 1013.1 |
| 20260904184753 | 84 | 251 | 2.0 | 3.0 | 0.00 | 0.03 | 0.02 | 85 | 1013.1 |
| 20260904184652 | 84 | 251 | 2.0 | 3.0 | 0.00 | 0.03 | 0.02 | 85 | 1013.2 |
| 20260904184553 | 84 | 244 | 2.0 | 6.0 | 0.00 | 0.03 | 0.02 | 85 | 1013.2 |
| 20260904184453 | 83 | 244 | 2.0 | 6.0 | 0.00 | 0.03 | 0.02 | 85 | 1013.2 |
| 20260904184353 | 83 | 0 | 1.0 | 6.0 | 0.00 | 0.03 | 0.02 | 86 | 1013.2 |
| 20260904184253 | 83 | 0 | 1.0 | 6.0 | 0.00 | 0.03 | 0.02 | 85 | 1013.3 |
| 20260904184153 | 83 | 0 | 2.0 | 6.0 | 0.00 | 0.03 | 0.02 | 85 | 1013.2 |
| 20260904184053 | 83 | 0 | 2.0 | 6.0 | 0.00 | 0.04 | 0.02 | 86 | 1013.2 |
| 20260904183954 | 82 | 0 | 4.0 | 6.0 | 0.00 | 0.04 | 0.02 | 86 | 1013.1 |
| 20260904183853 | 82 | 0 | 4.0 | 6.0 | 0.00 | 0.04 | 0.02 | 86 | 1013.1 |
| 20260904183754 | 82 | 0 | 4.0 | 6.0 | 0.00 | 0.05 | 0.02 | 86 | 1013.1 |
| 20260904183654 | 82 | 0 | 4.0 | 7.0 | 0.00 | 0.05 | 0.02 | 86 | 1013.1 |
| 20260904183554 | 82 | 0 | 3.0 | 10.0 | 0.00 | 0.05 | 0.02 | 86 | 1013.2 |
| 20260904183453 | 82 | 261 | 3.0 | 10.0 | 0.00 | 0.05 | 0.02 | 87 | 1013.1 |
| 20260904183354 | 82 | 251 | 3.0 | 10.0 | 0.00 | 0.05 | 0.02 | 86 | 1013.2 |
| 20260904183254 | 82 | 233 | 4.0 | 10.0 | 0.00 | 0.05 | 0.02 | 86 | 1013.2 |
| 20260904183152 | 82 | 244 | 4.0 | 10.0 | 0.00 | 0.06 | 0.02 | 86 | 1013.3 |
| 20260904183054 | 82 | 248 | 3.0 | 10.0 | 0.00 | 0.06 | 0.02 | 87 | 1013.3 |
| 20260904182954 | 82 | 212 | 3.0 | 10.0 | 0.00 | 0.06 | 0.02 | 87 | 1013.4 |
| 20260904182852 | 81 | 250 | 6.0 | 10.0 | 0.00 | 0.06 | 0.02 | 86 | 1013.4 |